[{"header": {"dx": 0.06612293990616946, "dy": 0.0552356325346848, "nx": 98, "ny": 59, "la1": 35.046912555036876, "la2": 31.78801023549047, "lo1": -121.43107172385933, "lo2": -114.95102361305473, "refTime": "2026041300", "parameterCategory": 1, "parameterNumber": 2}, "data": [9.39, 9.37, 9.37, 9.32, 9.32, 9.23, 8.79, 8.64, 8.17, 8.17, 7.58, 7.69, 8.56, 8.14, 8.14, 8.56, 9.21, 8.99, 9.54, 9.54, 9.54, 10.05, 9.75, 10.18, 10.25, 10.68, 9.9, 9.6, 9.42, 9.42, 9.9, 9.75, 9.54, 9.68, 9.35, 8.94, 8.8, 8.72, 8.4, 8.95, 9.08, 9.24, 9.63, 9.54, 10.04, 9.7, 9.36, 8.94, 8.36, 8.55, 9.04, 9.96, 10.51, 10.43, 10.34, 10.34, 11.14, 11.14, 11.87, 12.26, 12.27, 12.27, 12.47, 12.79, 13.35, 13.89, 14.3, 14.3, 14.71, 14.71, 14.3, 13.35, 12.79, 12.79, 13.19, 13.35, 14.17, 14.13, 14.87, 14.55, 13.76, 13.39, 12.96, 12.52, 12.07, 10.73, 10.28, 9.39, 9.39, 8.94, 7.21, 6.18, 7.35, 9.06, 10.14, 9.36, 8.38, 8.64, 9.39, 9.39, 8.92, 8.92, 8.87, 8.79, 8.77, 8.64, 8.17, 8.17, 7.69, 8.56, 8.14, 7.71, 9.11, 9.11, 8.77, 9.54, 9.54, 8.56, 9.97, 9.63, 10.05, 10.6, 9.66, 9.75, 9.49, 9.42, 9.42, 9.42, 9.6, 9.36, 8.95, 8.4, 9.06, 8.9, 8.45, 8.14, 7.42, 7.42, 7.82, 8.63, 9.11, 8.8, 8.9, 8.94, 8.9, 8.82, 8.67, 8.93, 9.48, 9.7, 10.04, 10.07, 10.37, 10.75, 11.14, 11.87, 12.26, 12.65, 12.51, 12.47, 12.47, 12.79, 13.35, 13.75, 13.75, 13.75, 13.75, 13.99, 14.39, 13.83, 13.75, 13.35, 13.35, 13.64, 14.42, 14.13, 14.87, 14.55, 13.76, 13.39, 12.96, 12.52, 12.07, 10.73, 10.28, 9.39, 9.39, 8.94, 7.21, 6.18, 7.35, 9.06, 10.14, 9.36, 8.38, 8.64, 8.94, 8.94, 8.92, 8.92, 8.87, 8.86, 8.77, 8.33, 8.3, 7.74, 7.69, 7.26, 8.56, 8.14, 8.19, 8.8, 9.24, 9.24, 9.21, 9.97, 8.63, 9.97, 9.63, 10.21, 11.03, 9.36, 9.36, 8.95, 8.8, 8.43, 8.42, 8.38, 7.18, 8.82, 7.81, 9.03, 7.1, 6.71, 6.02, 6.02, 6.51, 7.6, 8.49, 8.9, 9.24, 9.24, 8.67, 9.0, 8.85, 9.06, 9.31, 9.6, 10.43, 10.43, 10.12, 10.43, 11.2, 12.26, 12.89, 12.89, 12.86, 12.47, 12.47, 12.79, 13.19, 13.19, 12.79, 12.86, 13.49, 14.46, 14.46, 14.39, 14.16, 13.64, 13.49, 13.72, 14.4, 14.87, 14.59, 14.66, 13.84, 13.41, 12.52, 12.07, 10.73, 9.83, 9.39, 8.94, 8.05, 7.1, 6.16, 6.7, 8.9, 9.8, 9.75, 8.79, 8.31, 9.0, 8.94, 8.94, 8.92, 8.92, 8.87, 8.86, 8.77, 8.33, 8.3, 7.87, 7.26, 7.26, 8.56, 8.19, 8.77, 8.8, 8.9, 9.35, 9.35, 9.24, 9.24, 9.76, 9.11, 9.24, 9.9, 11.03, 8.63, 8.4, 7.76, 6.82, 5.89, 5.9, 6.45, 8.83, 8.85, 7.9, 7.28, 7.01, 5.29, 5.51, 6.7, 8.17, 8.63, 9.05, 9.43, 9.0, 8.93, 9.17, 9.06, 8.95, 9.43, 9.7, 9.7, 9.7, 10.51, 10.51, 11.25, 12.27, 12.89, 12.86, 12.86, 12.47, 12.47, 12.79, 12.39, 11.88, 11.9, 12.07, 13.41, 14.62, 15.47, 15.03, 14.71, 13.33, 12.92, 13.65, 14.22, 14.73, 14.67, 14.28, 13.41, 12.96, 12.07, 10.73, 9.39, 8.94, 8.05, 7.15, 6.26, 5.73, 6.2, 8.05, 9.39, 9.06, 8.42, 8.31, 9.0, 10.04, 8.94, 8.94, 8.92, 8.92, 8.92, 8.86, 8.42, 8.33, 7.87, 7.87, 7.4, 7.4, 8.33, 8.73, 8.33, 8.9, 8.91, 9.35, 8.9, 8.9, 9.76, 9.32, 8.6, 9.03, 8.3, 9.6, 8.93, 8.18, 6.98, 5.37, 4.83, 4.96, 6.04, 7.59, 9.76, 9.66, 9.09, 9.45, 7.12, 6.21, 6.73, 7.35, 8.31, 9.0, 9.0, 8.93, 8.85, 8.76, 9.06, 9.8, 9.8, 9.8, 9.48, 9.8, 10.92, 11.25, 11.9, 12.51, 13.25, 12.86, 12.27, 12.27, 12.79, 11.83, 10.91, 10.18, 11.14, 12.09, 13.41, 14.82, 16.12, 16.1, 15.05, 14.3, 13.07, 12.33, 12.94, 13.41, 13.41, 13.41, 12.52, 12.07, 10.73, 8.94, 7.15, 6.71, 6.26, 5.36, 4.92, 5.73, 7.15, 8.49, 8.56, 8.18, 8.38, 9.4, 9.67, 10.63, 8.94, 8.94, 8.94, 8.92, 8.92, 8.42, 8.42, 8.42, 7.87, 7.87, 7.4, 6.97, 8.33, 8.45, 8.9, 8.9, 8.94, 9.39, 8.94, 8.49, 8.9, 8.46, 9.11, 8.63, 8.22, 7.44, 7.21, 7.56, 6.3, 6.3, 5.24, 4.95, 5.37, 7.44, 8.88, 9.9, 10.28, 10.55, 8.72, 5.58, 5.37, 6.58, 7.59, 8.31, 8.31, 8.12, 9.17, 9.56, 9.56, 9.56, 9.26, 9.56, 9.56, 9.56, 10.98, 11.9, 12.27, 12.86, 12.86, 12.86, 12.27, 12.23, 11.26, 9.62, 8.66, 9.77, 11.19, 12.33, 13.04, 14.82, 16.11, 16.72, 16.72, 16.45, 14.95, 13.72, 12.42, 12.52, 12.07, 12.07, 10.73, 9.83, 8.01, 6.2, 4.92, 4.47, 4.47, 4.47, 5.29, 6.51, 7.63, 7.82, 7.76, 7.68, 9.04, 10.04, 10.63, 10.04, 8.94, 8.94, 8.94, 8.92, 8.47, 8.47, 8.42, 8.41, 7.97, 7.52, 7.51, 6.97, 8.77, 8.45, 9.39, 8.49, 8.94, 9.39, 8.94, 8.49, 8.49, 8.94, 8.45, 8.56, 8.22, 7.07, 6.63, 5.72, 6.58, 6.64, 6.64, 5.06, 5.49, 6.82, 7.67, 8.88, 9.67, 11.88, 10.0, 4.81, 3.0, 4.37, 6.58, 6.98, 7.27, 7.36, 9.17, 9.89, 9.66, 9.08, 9.08, 8.93, 9.62, 10.28, 11.28, 11.88, 12.27, 12.62, 12.79, 12.79, 12.23, 10.87, 9.66, 7.63, 7.45, 9.8, 11.83, 12.72, 13.46, 14.86, 16.48, 16.69, 17.04, 17.99, 17.26, 15.61, 13.49, 12.04, 10.73, 8.49, 8.49, 6.26, 4.82, 3.39, 3.13, 3.13, 4.02, 5.51, 6.6, 7.2, 7.33, 7.96, 8.31, 9.04, 10.04, 10.63, 10.63, 9.65, 8.94, 8.94, 8.94, 8.92, 8.47, 8.47, 8.47, 7.97, 7.97, 7.52, 7.51, 7.06, 8.9, 8.44, 9.39, 8.05, 8.49, 8.94, 8.49, 8.94, 8.49, 8.05, 8.49, 8.01, 7.63, 7.6, 6.52, 6.28, 6.64, 7.56, 6.98, 5.69, 5.37, 6.63, 7.07, 8.24, 8.95, 10.43, 11.03, 6.98, 4.29, 3.91, 5.59, 6.01, 6.3, 7.56, 8.93, 9.62, 9.0, 9.3, 8.03, 9.0, 10.01, 10.66, 10.9, 11.83, 12.23, 12.15, 12.15, 11.75, 10.63, 9.04, 6.45, 6.52, 7.32, 9.8, 12.64, 13.46, 13.88, 15.09, 16.55, 17.64, 17.89, 18.17, 18.11, 16.6, 15.01, 11.59, 8.05, 3.9, 1.2, 2.6, 2.21, 2.6, 3.47, 4.15, 5.43, 6.79, 7.35, 7.97, 7.94, 8.59, 9.67, 10.28, 10.63, 10.96, 10.4, 9.05, 8.94, 8.94, 8.94, 8.94, 8.47, 8.47, 8.47, 8.03, 7.97, 7.52, 7.58, 7.13, 9.39, 8.44, 8.9, 8.9, 8.94, 8.94, 8.49, 8.05, 8.49, 8.05, 7.15, 7.1, 6.94, 7.63, 6.23, 6.0, 6.9, 8.0, 7.6, 5.72, 5.06, 6.28, 7.07, 8.4, 9.46, 9.46, 9.63, 7.81, 5.31, 4.71, 5.72, 6.01, 7.27, 7.35, 8.49, 9.3, 9.0, 9.0, 9.08, 9.04, 10.04, 10.66, 11.26, 11.6, 11.75, 11.5, 11.09, 10.55, 8.42, 6.42, 5.06, 5.73, 7.93, 10.54, 12.78, 14.51, 14.85, 16.19, 17.19, 17.51, 18.17, 17.75, 17.37, 16.01, 12.49, 8.49, 3.9, -0.0, 1.05, 0.87, 1.66, 4.11, 5.09, 6.39, 7.31, 8.31, 8.59, 8.93, 9.56, 9.9, 10.09, 11.2, 11.2, 10.96, 9.42, 8.03, 8.94, 8.94, 8.94, 8.49, 8.47, 8.47, 8.47, 8.03, 8.03, 8.03, 7.58, 7.6, 7.6, 7.6, 9.39, 8.94, 8.94, 8.9, 9.32, 8.85, 8.85, 8.41, 8.06, 7.63, 7.63, 7.63, 6.64, 6.0, 7.06, 8.06, 7.6, 6.52, 5.72, 5.93, 8.0, 9.21, 9.54, 7.42, 8.22, 7.56, 6.01, 5.59, 6.32, 6.73, 7.06, 7.41, 8.06, 8.67, 8.65, 8.93, 9.62, 9.62, 10.01, 10.28, 10.63, 11.02, 11.2, 10.55, 9.9, 8.05, 5.76, 4.17, 5.33, 6.4, 8.18, 10.34, 13.51, 14.57, 15.34, 16.03, 16.69, 16.48, 16.52, 16.52, 14.75, 11.18, 7.15, 3.39, 0.79, 1.52, 3.7, 5.62, 4.46, 6.24, 7.27, 8.22, 8.9, 9.56, 10.19, 10.15, 10.48, 10.4, 10.55, 11.09, 11.09, 10.55, 8.79, 7.59, 8.94, 8.94, 8.94, 8.94, 8.49, 8.47, 8.47, 8.47, 8.03, 8.03, 8.03, 7.6, 7.6, 7.6, 9.39, 8.94, 9.39, 8.03, 8.87, 9.23, 10.45, 10.41, 9.92, 9.42, 9.54, 8.6, 8.06, 7.63, 7.63, 8.6, 9.03, 6.6, 5.58, 6.16, 7.42, 9.76, 9.97, 8.63, 7.42, 7.69, 7.35, 6.73, 6.73, 7.21, 7.44, 6.44, 7.07, 7.44, 7.35, 7.97, 8.85, 9.8, 10.24, 9.96, 8.93, 9.26, 10.58, 10.66, 7.81, 4.42, 3.36, 4.1, 5.55, 6.4, 8.46, 10.75, 13.18, 14.5, 15.12, 15.35, 15.1, 14.13, 14.0, 11.53, 8.05, 3.6, 1.34, -0.0, 2.44, 4.13, 5.99, 7.93, 9.37, 8.49, 9.48, 10.15, 11.17, 11.42, 11.37, 11.2, 10.94, 11.37, 10.85, 11.11, 10.85, 9.05, 7.59, 7.08, 8.94, 8.94, 8.94, 8.94, 8.49, 8.49, 8.47, 8.47, 8.03, 8.03, 8.05, 8.05, 8.05, 8.05, 8.03, 8.49, 8.49, 8.94, 9.82, 10.22, 10.6, 11.04, 10.6, 12.31, 11.11, 10.47, 10.47, 8.17, 9.92, 9.97, 9.97, 8.99, 8.06, 7.85, 8.49, 9.83, 9.72, 9.24, 8.4, 8.43, 7.76, 7.41, 6.79, 7.07, 5.93, 5.43, 5.69, 6.01, 6.01, 6.95, 6.79, 8.3, 8.56, 7.36, 6.31, 7.13, 9.54, 11.59, 7.9, 2.67, 1.63, 4.0, 5.55, 6.31, 7.25, 9.77, 12.02, 13.25, 12.96, 13.07, 13.28, 13.68, 11.8, 7.42, 1.4, -1.98, -1.27, 2.57, 5.1, 7.11, 7.69, 8.84, 10.34, 10.34, 11.06, 12.42, 12.68, 12.97, 12.64, 12.4, 11.3, 11.23, 10.32, 10.18, 9.42, 7.97, 7.36, 7.64, 8.49, 8.94, 8.94, 8.49, 8.49, 8.49, 8.49, 8.49, 8.05, 8.05, 8.05, 8.05, 8.05, 8.05, 8.03, 8.47, 8.92, 8.94, 9.39, 9.83, 10.28, 11.16, 11.16, 11.16, 11.16, 11.12, 11.12, 11.49, 11.49, 10.6, 11.51, 10.45, 9.7, 9.36, 9.36, 9.39, 9.36, 9.06, 8.3, 8.0, 7.44, 7.44, 6.79, 5.82, 4.74, 4.47, 4.71, 4.44, 6.01, 6.01, 5.86, 6.79, 5.86, 4.39, 4.38, 5.67, 7.84, 12.42, 10.84, 4.07, 0.8, 3.11, 5.11, 4.87, 4.75, 6.28, 8.87, 10.56, 10.43, 12.42, 15.29, 15.49, 13.91, 8.38, 1.13, -2.68, 1.75, 5.48, 7.93, 9.16, 9.23, 10.65, 11.44, 12.87, 12.78, 13.85, 14.49, 13.85, 13.07, 12.65, 11.09, 10.32, 9.08, 8.43, 7.97, 8.22, 8.12, 8.01, 8.49, 8.49, 8.49, 8.49, 8.49, 8.49, 8.49, 8.49, 8.05, 8.05, 8.05, 8.49, 8.49, 8.05, 8.03, 8.47, 8.47, 8.92, 8.92, 9.37, 9.83, 10.28, 10.73, 10.73, 11.18, 11.61, 11.61, 11.61, 11.61, 11.61, 11.16, 11.15, 11.18, 9.35, 9.36, 9.36, 8.91, 8.8, 8.14, 7.35, 7.42, 7.42, 6.7, 6.28, 4.75, 4.75, 4.03, 4.71, 5.44, 5.72, 5.72, 4.71, 3.17, 2.17, 3.45, 4.4, 7.95, 12.46, 13.05, 5.51, 1.54, 3.47, 4.48, 4.48, 3.07, 4.81, 5.72, 6.42, 8.62, 11.4, 14.84, 17.57, 17.46, 13.89, 7.15, 2.76, 4.65, 8.03, 10.86, 11.83, 11.92, 12.84, 13.39, 13.29, 13.02, 14.85, 14.95, 14.17, 12.5, 11.95, 10.1, 8.24, 7.33, 7.59, 7.9, 8.12, 8.42, 8.3, 8.49, 8.49, 8.49, 8.49, 8.49, 8.49, 8.49, 8.49, 8.49, 8.49, 8.49, 8.49, 8.49, 8.49, 8.47, 8.47, 8.47, 8.47, 8.92, 9.37, 9.37, 9.82, 9.82, 10.28, 10.73, 10.73, 11.18, 11.18, 11.18, 11.18, 11.18, 10.28, 11.62, 10.28, 9.83, 9.83, 9.77, 8.33, 9.11, 7.63, 7.35, 8.22, 7.2, 6.28, 6.28, 4.75, 4.75, 5.37, 5.69, 5.69, 6.01, 4.46, 3.68, 2.32, 3.76, 4.74, 7.2, 10.94, 11.8, 6.9, 2.28, 3.53, 4.72, 4.48, 3.34, 3.47, 4.43, 5.4, 7.95, 10.69, 13.18, 17.11, 19.81, 17.25, 11.37, 7.51, 8.99, 11.25, 12.87, 14.37, 14.42, 14.88, 14.24, 13.48, 12.44, 14.42, 13.99, 13.23, 11.52, 10.43, 9.03, 7.33, 7.22, 7.85, 8.85, 8.3, 8.18, 8.18, 8.49, 8.49, 8.49, 8.49, 8.49, 8.49, 8.49, 8.49, 8.49, 8.49, 8.49, 8.49, 8.49, 8.49, 8.49, 8.47, 8.47, 8.47, 8.92, 8.92, 9.37, 9.37, 9.82, 9.82, 10.27, 10.27, 10.71, 10.73, 11.18, 11.18, 11.18, 11.18, 10.28, 11.18, 10.28, 8.94, 9.36, 8.8, 9.11, 8.17, 7.21, 6.8, 7.07, 6.28, 5.93, 5.93, 5.93, 5.93, 5.69, 6.52, 6.87, 6.87, 6.32, 6.28, 5.36, 5.81, 6.79, 8.15, 8.85, 7.96, 5.63, 5.69, 4.4, 3.11, 3.7, 4.4, 4.71, 6.69, 7.81, 10.04, 12.27, 17.22, 21.58, 18.6, 12.52, 10.43, 12.02, 14.3, 15.44, 15.44, 16.11, 16.06, 13.99, 12.45, 10.68, 9.97, 11.84, 11.11, 9.6, 8.68, 8.31, 7.9, 8.9, 9.2, 8.49, 8.01, 8.66, 8.66, 8.49, 8.49, 8.49, 8.49, 8.49, 8.49, 8.49, 8.49, 8.49, 8.49, 8.49, 8.49, 8.49, 8.49, 8.47, 8.47, 8.47, 8.47, 8.86, 8.87, 9.37, 9.37, 9.82, 9.82, 9.77, 10.22, 10.22, 10.67, 10.67, 11.11, 11.11, 11.11, 10.22, 12.02, 9.36, 9.39, 9.39, 9.83, 8.85, 7.97, 7.21, 5.82, 6.7, 5.82, 6.28, 6.28, 6.28, 6.01, 6.87, 7.44, 8.15, 8.54, 8.54, 8.15, 7.76, 8.22, 8.79, 8.8, 9.3, 9.88, 9.08, 6.69, 5.44, 4.46, 4.46, 3.79, 4.71, 6.64, 8.94, 10.04, 13.19, 17.31, 22.26, 19.51, 14.5, 12.96, 15.04, 16.41, 16.48, 16.49, 16.72, 16.45, 13.83, 10.65, 9.03, 8.4, 9.49, 8.38, 8.6, 9.26, 9.21, 8.93, 8.9, 8.79, 8.66, 7.93, 8.66, 8.66, 8.49, 8.49, 8.49, 8.49, 8.49, 8.49, 8.49, 8.49, 8.49, 8.49, 8.49, 8.49, 8.49, 8.47, 8.03, 8.47, 8.42, 8.42, 8.42, 8.86, 8.87, 9.23, 9.32, 9.77, 9.77, 9.68, 10.13, 10.14, 10.47, 10.47, 10.5, 10.94, 10.47, 10.04, 9.68, 10.16, 9.36, 9.76, 8.49, 7.94, 6.52, 6.28, 6.28, 6.28, 7.07, 7.07, 7.44, 7.44, 8.15, 8.54, 9.04, 8.63, 8.63, 8.15, 8.63, 8.79, 9.21, 8.8, 8.72, 8.94, 8.94, 8.15, 6.64, 5.72, 5.03, 4.29, 4.74, 6.87, 8.15, 10.04, 13.19, 18.16, 22.29, 19.81, 15.47, 14.51, 16.1, 18.05, 17.66, 16.63, 16.39, 15.9, 13.43, 8.93, 8.38, 8.38, 9.0, 8.31, 8.93, 9.96, 10.63, 9.66, 8.22, 8.01, 8.56, 8.95, 9.13, 9.13, 8.49, 8.49, 8.49, 8.49, 8.49, 8.49, 8.49, 8.05, 8.05, 8.05, 8.49, 8.49, 8.47, 8.03, 8.03, 9.8, 7.97, 7.97, 8.42, 8.86, 8.79, 9.11, 8.64, 10.45, 9.97, 10.91, 7.74, 9.75, 10.25, 8.96, 9.43, 9.7, 10.12, 9.7, 9.7, 9.43, 8.96, 8.64, 8.9, 9.39, 8.14, 8.17, 8.63, 8.8, 8.54, 8.15, 8.15, 8.22, 8.63, 8.63, 9.21, 9.21, 8.63, 8.63, 9.21, 8.8, 8.8, 8.72, 8.94, 9.3, 8.94, 8.15, 7.81, 6.39, 5.37, 5.06, 5.37, 6.39, 7.69, 8.94, 12.56, 18.32, 24.0, 22.48, 17.96, 16.22, 16.36, 17.59, 17.87, 17.19, 14.64, 12.98, 10.63, 9.56, 9.66, 10.01, 10.29, 10.73, 10.01, 10.19, 10.91, 9.96, 8.42, 7.28, 8.84, 9.7, 9.8, 9.8, 8.49, 8.49, 8.49, 8.49, 8.49, 8.49, 8.05, 8.05, 8.05, 8.05, 8.03, 8.47, 8.03, 8.03, 8.41, 8.42, 7.97, 7.97, 9.8, 9.7, 9.7, 7.74, 7.81, 9.75, 9.75, 9.54, 9.24, 7.87, 8.3, 8.21, 8.64, 8.96, 8.79, 9.21, 9.01, 9.01, 9.01, 8.96, 8.87, 8.92, 9.11, 9.21, 9.21, 8.79, 8.3, 9.63, 8.63, 8.22, 8.22, 8.63, 8.79, 9.21, 8.63, 8.79, 7.6, 8.4, 9.77, 8.32, 8.68, 9.3, 8.94, 7.81, 8.0, 7.21, 5.69, 5.69, 6.01, 7.02, 8.06, 9.27, 12.7, 19.0, 24.99, 24.99, 20.55, 16.82, 15.61, 15.61, 16.07, 15.2, 13.32, 12.09, 10.96, 10.66, 10.66, 10.79, 11.12, 11.3, 11.04, 10.15, 10.29, 9.89, 8.76, 7.9, 9.43, 10.84, 11.25, 11.25, 8.49, 8.49, 8.49, 8.49, 8.49, 8.05, 8.05, 8.05, 8.03, 8.03, 8.03, 8.03, 8.03, 7.97, 8.41, 8.42, 8.42, 8.42, 8.33, 10.14, 9.7, 7.87, 7.74, 8.17, 8.64, 8.77, 8.86, 8.42, 8.42, 8.47, 8.42, 8.86, 8.77, 8.48, 8.22, 8.0, 8.51, 8.96, 9.77, 9.77, 9.86, 9.7, 9.21, 9.21, 8.3, 9.75, 8.79, 8.63, 9.03, 9.11, 9.11, 8.22, 8.63, 8.15, 9.2, 8.05, 9.04, 8.94, 9.3, 9.1, 8.37, 8.37, 8.0, 7.21, 6.06, 6.39, 6.32, 7.35, 7.97, 9.3, 12.39, 17.79, 24.0, 24.08, 17.42, 12.7, 11.8, 12.89, 12.98, 12.49, 11.84, 11.5, 11.26, 11.12, 11.64, 11.26, 11.64, 11.37, 10.81, 9.56, 9.26, 9.06, 9.4, 8.79, 9.83, 10.82, 11.42, 11.42, 8.47, 8.47, 8.47, 8.47, 8.03, 8.03, 8.03, 8.03, 8.03, 8.03, 8.03, 7.97, 7.97, 7.97, 7.97, 8.42, 8.33, 8.33, 8.64, 8.79, 8.87, 8.92, 8.86, 8.87, 9.32, 9.32, 9.32, 9.37, 9.37, 9.37, 9.39, 9.39, 9.37, 8.86, 8.17, 7.81, 8.72, 9.54, 10.28, 10.14, 10.18, 10.0, 9.51, 9.21, 9.21, 8.3, 9.75, 9.11, 9.11, 9.11, 9.03, 8.22, 8.15, 8.54, 8.72, 8.58, 9.04, 9.66, 9.48, 8.54, 7.44, 8.43, 7.81, 7.15, 6.73, 6.64, 6.64, 6.53, 6.88, 7.65, 8.85, 13.74, 20.46, 22.96, 0.88, 2.26, 5.38, 7.27, 8.24, 8.94, 10.85, 11.69, 12.86, 12.47, 12.23, 11.64, 10.66, 10.9, 10.78, 10.19, 8.85, 9.48, 10.15, 10.15, 10.47, 11.42, 11.9, 11.9, 8.03, 8.03, 8.03, 8.03, 8.03, 8.03, 8.03, 8.03, 8.03, 7.97, 7.97, 7.97, 7.97, 7.97, 8.3, 8.33, 8.33, 8.33, 8.21, 8.64, 9.23, 9.32, 9.32, 9.32, 9.82, 9.82, 9.82, 9.82, 9.82, 9.37, 9.82, 9.82, 9.83, 9.82, 9.32, 9.11, 9.23, 9.82, 10.27, 10.47, 10.6, 10.42, 10.42, 9.51, 9.7, 9.21, 10.18, 9.54, 9.11, 8.79, 8.63, 8.54, 8.93, 9.1, 9.1, 8.72, 8.03, 9.0, 9.86, 7.82, 6.82, 7.42, 7.44, 7.06, 6.64, 6.53, 6.53, 5.89, 5.49, 5.64, 6.97, 9.21, 25.41, 18.57, 5.21, 0.0, 1.55, 4.46, 6.66, 8.36, 10.27, 12.56, 12.79, 13.11, 12.23, 11.28, 10.24, 10.43, 11.38, 11.38, 9.48, 9.48, 10.47, 10.82, 11.18, 11.75, 11.75, 11.75, 8.03, 8.03, 8.03, 8.03, 8.03, 8.03, 7.97, 7.97, 7.97, 7.97, 7.97, 7.97, 7.97, 7.87, 8.3, 8.3, 8.3, 8.3, 8.21, 8.64, 8.64, 9.11, 9.23, 9.24, 9.77, 9.77, 9.77, 9.77, 9.77, 9.77, 9.82, 9.82, 10.27, 10.27, 10.22, 10.22, 9.82, 10.28, 10.22, 10.81, 11.08, 10.49, 10.42, 10.12, 9.7, 9.21, 10.7, 9.75, 9.63, 9.63, 9.6, 9.6, 9.6, 9.6, 9.2, 8.0, 7.06, 8.03, 8.94, 8.0, 6.18, 5.82, 6.39, 6.64, 6.95, 6.95, 6.64, 6.3, 5.1, 4.83, 6.44, 15.9, 23.41, 26.39, 21.59, 14.1, 9.83, 8.41, 9.39, 8.91, 10.62, 11.86, 12.62, 11.8, 11.26, 10.24, 9.7, 10.04, 11.38, 12.01, 11.14, 10.47, 11.09, 11.42, 11.75, 11.75, 11.75, 11.75, 7.97, 7.97, 7.97, 7.97, 7.97, 7.97, 7.97, 7.97, 7.97, 7.87, 7.87, 7.87, 7.87, 7.87, 7.87, 7.87, 7.87, 8.3, 8.21, 8.64, 8.64, 8.64, 9.11, 9.11, 9.11, 9.68, 9.68, 10.21, 10.22, 9.77, 9.77, 9.77, 10.22, 10.22, 10.22, 10.22, 9.82, 10.28, 10.58, 11.24, 11.08, 10.91, 10.42, 10.18, 9.7, 9.86, 9.86, 9.43, 9.39, 9.21, 9.21, 10.62, 9.8, 9.6, 9.2, 8.15, 7.76, 7.07, 8.37, 8.0, 7.07, 5.82, 6.11, 7.06, 7.41, 6.73, 5.89, 5.89, 5.89, 6.7, 9.8, 13.32, 19.81, 22.47, 25.36, 25.36, 20.63, 14.66, 10.91, 8.56, 9.26, 10.26, 10.63, 10.0, 9.56, 9.4, 9.7, 10.01, 10.34, 12.07, 13.8, 12.43, 12.01, 12.27, 11.37, 11.37, 11.37, 11.37, 7.97, 7.97, 7.97, 7.97, 7.97, 7.97, 7.97, 7.87, 7.87, 7.84, 7.4, 7.4, 7.87, 7.87, 7.87, 7.87, 7.87, 8.3, 8.21, 8.64, 8.64, 8.64, 8.64, 9.11, 9.11, 9.11, 9.57, 9.68, 9.68, 9.68, 9.77, 9.77, 10.22, 10.22, 10.22, 9.77, 9.82, 10.27, 11.04, 11.28, 11.56, 10.91, 10.6, 10.18, 10.34, 9.86, 9.86, 9.86, 9.86, 9.7, 9.7, 9.21, 11.13, 10.18, 9.63, 8.8, 7.76, 7.37, 7.76, 8.0, 8.0, 7.21, 6.44, 6.79, 6.79, 6.39, 5.59, 5.49, 7.06, 8.4, 9.26, 12.75, 15.61, 20.19, 21.51, 23.64, 25.43, 20.43, 10.25, 4.43, 5.21, 6.71, 7.67, 7.85, 8.66, 9.89, 10.43, 10.43, 10.43, 11.44, 13.85, 14.04, 13.35, 11.75, 11.37, 11.88, 11.69, 11.69, 7.97, 7.97, 7.97, 7.97, 7.87, 7.87, 7.87, 7.87, 7.87, 7.4, 7.4, 7.4, 7.4, 7.4, 7.4, 7.84, 7.87, 8.17, 8.17, 8.21, 8.64, 8.64, 8.64, 8.64, 9.11, 9.11, 9.11, 9.54, 9.57, 9.68, 9.68, 9.68, 9.68, 9.68, 9.68, 9.77, 10.28, 10.6, 11.28, 11.56, 11.13, 11.08, 10.6, 10.18, 10.18, 10.18, 10.12, 9.7, 9.7, 9.7, 9.7, 9.86, 9.43, 9.39, 10.18, 8.95, 9.21, 8.22, 7.35, 8.0, 9.1, 8.06, 8.15, 6.18, 6.52, 5.69, 5.49, 7.41, 8.63, 9.75, 10.45, 11.52, 14.11, 17.19, 18.73, 20.34, 25.08, 24.01, 12.27, 2.84, 2.8, 4.01, 5.7, 7.28, 8.66, 10.07, 11.06, 11.14, 11.2, 11.9, 13.02, 15.2, 14.88, 12.51, 11.75, 11.94, 12.25, 12.25, 7.97, 7.97, 7.97, 7.87, 7.87, 7.87, 7.87, 7.87, 7.87, 7.4, 7.4, 7.4, 7.4, 7.4, 7.4, 7.84, 7.87, 8.3, 8.17, 8.17, 8.21, 8.64, 8.64, 8.64, 8.64, 9.11, 9.11, 9.11, 9.11, 9.11, 9.23, 9.23, 9.11, 9.23, 9.23, 9.82, 10.27, 11.05, 11.28, 11.28, 11.08, 10.66, 10.6, 10.0, 9.92, 9.92, 10.12, 10.12, 9.7, 9.7, 9.86, 9.86, 9.43, 9.39, 9.21, 9.9, 10.18, 8.79, 7.76, 8.0, 8.95, 9.2, 8.4, 6.44, 5.69, 6.95, 8.06, 8.4, 8.82, 9.75, 10.93, 12.49, 12.96, 14.28, 15.91, 18.62, 22.11, 25.05, 19.74, 10.6, 5.6, 2.84, 4.03, 7.36, 9.48, 10.12, 10.78, 12.22, 12.52, 12.51, 13.43, 14.79, 15.72, 13.93, 12.9, 12.64, 12.66, 12.66, 8.41, 8.41, 8.3, 8.3, 7.87, 7.87, 7.87, 7.87, 7.4, 7.4, 7.4, 7.4, 7.4, 7.4, 7.4, 7.4, 7.87, 7.87, 8.3, 8.17, 8.17, 8.21, 8.64, 8.64, 8.64, 8.64, 8.64, 8.64, 8.64, 8.79, 8.79, 8.79, 8.79, 8.79, 9.32, 10.28, 10.67, 11.4, 11.28, 11.24, 10.66, 10.66, 10.42, 11.37, 11.09, 9.92, 10.12, 9.86, 9.39, 9.86, 9.39, 9.21, 9.21, 9.7, 9.7, 9.21, 11.03, 9.63, 8.3, 8.0, 8.95, 9.33, 8.0, 6.79, 6.32, 7.35, 8.67, 8.82, 8.45, 9.36, 11.06, 12.86, 13.84, 14.28, 15.91, 18.17, 19.65, 22.11, 24.56, 19.51, 11.5, 5.01, 4.47, 6.06, 9.53, 10.82, 11.79, 13.25, 13.43, 13.75, 14.05, 14.58, 15.2, 15.05, 13.85, 13.07, 12.66, 12.66, 8.3, 8.3, 8.3, 8.3, 7.87, 7.87, 7.87, 7.4, 7.4, 7.4, 7.4, 7.4, 6.97, 6.97, 7.4, 7.4, 7.87, 7.87, 7.74, 8.17, 8.17, 8.21, 8.21, 8.64, 8.64, 8.64, 8.64, 8.64, 8.64, 8.77, 8.77, 8.77, 8.77, 9.32, 9.83, 10.71, 11.11, 10.94, 10.81, 10.81, 10.66, 10.66, 10.6, 10.0, 9.92, 11.09, 10.95, 9.21, 9.21, 9.01, 9.42, 9.51, 9.51, 9.92, 10.12, 10.12, 9.86, 8.96, 9.33, 8.4, 9.06, 8.82, 7.67, 6.73, 7.41, 8.06, 8.32, 9.2, 7.42, 7.6, 8.46, 10.95, 14.92, 17.59, 17.36, 16.53, 16.69, 17.86, 20.77, 20.94, 14.71, 7.44, 6.92, 8.15, 9.3, 11.94, 12.66, 13.64, 14.31, 14.75, 14.31, 15.13, 15.04, 15.77, 14.53, 13.6, 13.07, 13.07, 8.3, 8.3, 8.3, 7.87, 7.87, 7.87, 7.4, 7.4, 7.4, 7.4, 7.4, 7.4, 6.94, 6.94, 7.4, 7.4, 7.84, 7.74, 7.74, 8.17, 8.17, 8.17, 8.21, 8.64, 8.17, 8.17, 8.17, 8.17, 8.33, 8.33, 8.3, 8.33, 8.86, 9.37, 10.28, 10.67, 11.04, 10.94, 10.81, 10.81, 10.66, 10.66, 10.6, 10.18, 10.12, 10.95, 11.37, 9.51, 9.51, 9.92, 10.12, 10.18, 10.34, 10.18, 10.18, 10.34, 9.86, 9.54, 8.64, 9.06, 8.82, 8.55, 7.69, 7.41, 7.44, 7.07, 7.69, 9.1, 8.15, 6.79, 6.16, 8.43, 13.43, 21.03, 22.11, 17.26, 13.29, 13.18, 15.65, 17.44, 14.79, 12.01, 9.59, 10.41, 10.68, 11.39, 11.71, 14.23, 14.23, 14.23, 14.23, 14.15, 14.47, 14.75, 14.77, 13.84, 13.07, 13.07, 7.87, 7.87, 7.87, 7.87, 7.87, 7.87, 7.4, 7.4, 7.4, 7.4, 7.4, 6.94, 6.94, 6.94, 7.4, 7.4, 7.69, 7.69, 7.74, 7.74, 8.17, 8.17, 8.0, 8.0, 8.0, 8.0, 8.17, 7.74, 9.24, 7.4, 7.87, 8.42, 8.92, 9.83, 10.27, 10.6, 10.94, 10.81, 10.81, 10.81, 10.81, 10.81, 10.6, 10.18, 10.34, 10.34, 10.77, 10.6, 10.6, 10.18, 10.34, 10.34, 10.47, 10.47, 10.47, 10.47, 9.57, 9.11, 8.48, 8.22, 8.95, 8.63, 8.05, 7.67, 7.44, 7.03, 6.44, 8.15, 8.72, 8.8, 7.42, 8.0, 11.62, 19.3, 26.4, 20.99, 11.96, 9.8, 12.04, 14.0, 14.01, 13.15, 13.85, 12.11, 12.3, 11.74, 12.02, 11.62, 13.86, 12.96, 12.94, 12.88, 13.09, 13.64, 14.35, 13.84, 13.07, 13.07, 7.87, 7.87, 7.87, 7.87, 7.87, 7.4, 7.4, 7.4, 7.4, 7.4, 6.97, 6.94, 6.51, 6.51, 7.26, 7.26, 7.26, 7.26, 7.69, 7.74, 8.0, 8.0, 8.0, 8.0, 7.58, 7.58, 7.58, 7.74, 7.84, 9.24, 7.58, 8.49, 9.39, 10.27, 10.66, 10.47, 10.47, 10.81, 10.81, 10.81, 10.81, 10.81, 10.77, 10.34, 10.34, 10.34, 10.34, 10.34, 10.34, 10.34, 10.47, 10.47, 10.47, 10.47, 10.47, 9.86, 9.39, 8.91, 8.3, 8.4, 8.15, 8.05, 8.37, 7.44, 7.67, 7.42, 7.35, 7.35, 8.63, 9.2, 9.03, 9.33, 10.7, 16.97, 27.83, 26.33, 15.01, 10.7, 12.33, 14.03, 14.07, 13.84, 14.07, 14.56, 12.18, 11.95, 11.16, 10.28, 12.07, 11.59, 11.36, 11.28, 12.22, 13.33, 14.01, 14.17, 13.42, 13.42, 7.87, 7.87, 7.87, 7.87, 7.4, 7.4, 7.4, 7.4, 7.4, 7.4, 6.94, 6.47, 6.47, 6.94, 7.26, 7.26, 7.26, 7.26, 7.69, 7.58, 8.0, 8.0, 7.51, 7.51, 7.51, 7.51, 7.69, 7.74, 7.87, 7.97, 8.49, 9.39, 9.82, 10.22, 10.58, 10.47, 10.47, 10.5, 10.94, 10.94, 10.81, 10.77, 10.34, 10.34, 10.34, 10.34, 10.34, 10.47, 10.47, 10.47, 10.04, 10.04, 10.04, 10.04, 9.86, 9.21, 8.91, 8.28, 8.15, 8.27, 9.48, 8.37, 8.0, 8.0, 7.44, 7.44, 7.44, 7.6, 8.63, 9.2, 9.6, 10.6, 11.57, 15.65, 23.68, 26.6, 20.01, 15.13, 14.15, 14.68, 13.69, 13.23, 12.79, 13.23, 13.23, 10.14, 9.24, 8.33, 10.75, 10.95, 11.09, 11.75, 12.4, 13.33, 14.35, 14.11, 14.35, 14.35, 7.87, 7.87, 7.84, 7.4, 7.4, 7.4, 7.4, 7.4, 7.26, 6.94, 6.47, 6.47, 6.47, 6.79, 6.79, 6.79, 7.26, 7.26, 7.51, 7.93, 7.71, 7.51, 7.51, 7.51, 7.51, 7.51, 7.69, 7.87, 7.97, 8.47, 8.94, 9.83, 10.27, 10.22, 10.14, 10.04, 10.47, 10.47, 10.47, 10.5, 10.34, 10.34, 10.34, 10.34, 10.34, 10.34, 10.47, 10.04, 10.04, 10.01, 10.01, 10.01, 10.01, 9.86, 9.7, 9.42, 8.68, 8.27, 7.9, 8.27, 7.72, 9.48, 8.37, 8.72, 8.34, 8.54, 7.67, 8.55, 8.95, 9.6, 10.27, 11.21, 12.75, 15.63, 20.05, 22.5, 21.7, 18.58, 16.22, 14.22, 11.99, 11.09, 11.09, 11.53, 11.42, 8.21, 7.81, 10.23, 10.28, 10.9, 11.83, 12.39, 13.23, 13.64, 14.56, 15.22, 15.04, 15.04, 7.69, 7.69, 7.26, 7.26, 7.4, 7.4, 7.26, 7.26, 7.21, 6.51, 6.47, 6.47, 6.36, 6.79, 6.79, 6.79, 7.09, 7.51, 7.31, 7.31, 7.31, 7.31, 7.51, 7.51, 7.51, 7.51, 7.74, 7.87, 8.42, 8.92, 9.39, 9.83, 9.77, 10.14, 10.14, 10.14, 10.14, 10.47, 10.47, 10.47, 10.34, 10.34, 10.34, 10.34, 9.91, 10.04, 10.04, 10.04, 10.13, 9.57, 9.57, 9.43, 9.43, 9.01, 9.2, 9.2, 8.82, 8.43, 7.9, 7.9, 8.27, 7.9, 9.6, 8.05, 8.05, 9.2, 8.0, 8.55, 8.95, 9.49, 10.62, 10.43, 13.57, 16.09, 19.26, 19.08, 19.93, 20.19, 18.39, 13.83, 11.23, 10.05, 10.05, 10.05, 9.89, 9.74, 9.9, 10.53, 11.16, 12.47, 13.35, 13.75, 13.99, 14.21, 14.9, 15.49, 15.37, 15.37, 7.69, 7.69, 7.26, 7.26, 7.26, 7.21, 7.26, 7.26, 6.79, 6.47, 6.04, 6.3, 6.3, 6.79, 6.79, 6.79, 7.09, 7.31, 7.31, 6.8, 6.8, 7.31, 7.31, 7.51, 7.51, 7.74, 7.87, 8.42, 8.92, 9.39, 9.83, 9.77, 9.77, 9.68, 10.13, 10.14, 10.14, 10.14, 10.04, 10.47, 10.47, 10.34, 9.86, 11.18, 9.43, 10.01, 10.04, 10.01, 9.57, 9.54, 9.39, 9.21, 9.01, 8.8, 9.2, 8.82, 8.82, 8.43, 8.15, 8.15, 8.15, 8.15, 9.6, 8.05, 8.43, 9.6, 8.0, 8.55, 8.95, 8.95, 9.9, 10.15, 12.21, 16.6, 19.51, 18.6, 17.87, 19.08, 19.08, 14.56, 11.21, 10.1, 9.83, 9.18, 9.45, 10.15, 10.79, 11.5, 12.47, 13.35, 14.17, 14.49, 14.7, 14.87, 15.45, 15.58, 15.58, 15.5, 7.69, 7.69, 7.26, 7.26, 7.21, 7.21, 7.26, 7.21, 6.79, 6.3, 5.88, 6.3, 6.3, 6.79, 6.79, 7.01, 7.01, 6.8, 7.01, 7.01, 6.8, 7.31, 7.51, 7.51, 7.69, 7.87, 8.42, 8.92, 9.39, 9.82, 9.77, 9.77, 9.68, 9.68, 9.68, 10.13, 10.13, 10.14, 10.04, 10.04, 10.04, 10.04, 9.43, 11.18, 9.86, 9.91, 10.01, 9.57, 9.39, 8.96, 8.79, 9.01, 9.01, 8.8, 8.68, 8.68, 8.68, 8.28, 8.15, 8.15, 8.15, 7.76, 9.1, 8.0, 8.4, 9.2, 8.8, 8.05, 9.03, 9.03, 8.67, 10.16, 11.8, 16.19, 21.7, 20.61, 18.03, 17.36, 15.95, 12.92, 10.52, 9.6, 9.74, 9.14, 10.15, 10.79, 12.25, 12.39, 13.23, 13.99, 14.7, 14.87, 15.03, 15.57, 15.63, 15.63, 15.65, 15.58, 7.69, 7.69, 7.26, 7.21, 7.01, 7.01, 7.01, 6.79, 6.3, 5.88, 6.3, 6.3, 6.3, 6.6, 6.6, 6.6, 7.01, 7.01, 7.01, 7.01, 7.01, 7.51, 7.51, 7.69, 7.87, 8.42, 8.92, 9.39, 9.37, 9.77, 9.77, 9.68, 9.68, 9.68, 9.68, 9.68, 9.68, 10.13, 10.13, 10.04, 10.01, 10.01, 9.57, 9.11, 11.18, 9.86, 9.86, 9.39, 8.96, 8.72, 8.72, 8.91, 9.01, 8.91, 8.91, 8.91, 8.28, 8.15, 8.15, 8.4, 7.76, 7.76, 7.48, 9.2, 8.54, 8.8, 7.67, 8.05, 8.67, 9.05, 9.27, 9.65, 11.62, 13.59, 19.01, 21.59, 21.12, 17.15, 13.32, 10.05, 9.18, 9.34, 10.0, 10.15, 11.12, 12.25, 13.07, 13.57, 13.78, 14.44, 14.57, 15.12, 15.18, 15.65, 15.65, 15.65, 15.2, 15.65, 7.69, 7.69, 7.09, 7.01, 7.01, 7.01, 7.01, 6.79, 6.3, 6.3, 6.3, 6.3, 6.51, 6.51, 6.51, 6.51, 6.51, 6.6, 7.01, 7.01, 7.01, 7.09, 7.69, 7.74, 8.41, 8.47, 8.94, 9.37, 9.32, 9.77, 9.77, 9.68, 9.68, 9.68, 9.68, 9.68, 9.68, 9.68, 9.68, 9.68, 9.57, 9.57, 9.57, 9.23, 9.23, 11.36, 9.86, 9.21, 9.21, 8.72, 8.72, 8.72, 8.72, 8.51, 8.51, 8.51, 8.4, 8.4, 8.4, 8.15, 8.15, 7.61, 9.1, 8.54, 8.54, 8.0, 7.44, 8.72, 7.69, 9.05, 9.65, 9.65, 10.62, 11.62, 14.21, 19.36, 23.99, 21.92, 15.1, 10.85, 10.27, 11.21, 10.94, 11.34, 11.99, 12.92, 13.57, 13.78, 13.96, 14.57, 14.67, 15.18, 15.2, 15.65, 15.62, 15.18, 14.73, 14.73, 7.51, 7.51, 7.09, 7.01, 7.01, 7.01, 7.01, 6.79, 6.3, 6.3, 6.3, 6.51, 6.51, 6.51, 6.51, 6.51, 6.51, 6.6, 7.01, 7.01, 7.01, 7.09, 7.69, 7.87, 8.47, 8.49, 8.92, 9.37, 9.32, 9.32, 9.77, 9.68, 9.68, 9.68, 9.68, 9.68, 9.68, 9.68, 9.68, 9.68, 9.68, 9.68, 9.68, 9.23, 9.23, 9.68, 9.43, 9.39, 9.39, 8.96, 8.91, 8.3, 8.3, 8.3, 8.22, 8.22, 8.0, 8.4, 8.4, 8.15, 7.9, 7.9, 7.61, 8.93, 8.54, 8.0, 8.0, 8.0, 7.69, 9.05, 9.65, 10.0, 10.79, 10.95, 13.02, 15.61, 20.62, 26.03, 21.08, 15.47, 13.19, 13.33, 12.22, 11.52, 11.52, 12.58, 13.05, 13.53, 14.13, 14.67, 14.73, 15.2, 15.2, 15.18, 14.66, 14.22, 14.22, 14.22, 7.09, 7.09, 7.09, 7.01, 7.01, 7.01, 6.79, 6.3, 6.3, 6.3, 6.1, 6.51, 6.51, 6.51, 6.51, 6.51, 6.51, 6.6, 7.01, 7.01, 7.09, 7.26, 7.87, 8.47, 8.49, 8.49, 8.92, 9.37, 9.32, 9.32, 9.68, 9.68, 9.68, 9.68, 9.68, 9.68, 9.68, 9.68, 9.68, 9.68, 9.68, 9.68, 9.23, 9.23, 9.23, 9.23, 9.11, 9.11, 8.96, 8.91, 8.48, 8.48, 8.42, 8.22, 8.22, 8.22, 8.0, 8.0, 8.0, 7.61, 7.35, 7.72, 7.35, 9.1, 8.0, 8.0, 8.37, 8.37, 8.06, 9.05, 9.6, 9.9, 10.01, 11.37, 12.14, 13.64, 17.03, 22.27, 23.69, 20.71, 17.7, 15.34, 13.15, 11.09, 10.8, 11.42, 12.3, 13.21, 14.22, 14.67, 14.73, 14.75, 15.18, 14.67, 14.22, 13.65, 13.65, 13.65, 7.09, 7.09, 7.01, 7.01, 7.01, 6.6, 6.6, 6.72, 6.1, 6.1, 6.51, 6.51, 6.51, 6.51, 6.51, 6.51, 6.51, 6.6, 7.01, 7.09, 7.26, 7.4, 7.97, 8.05, 8.49, 8.47, 8.92, 9.32, 9.32, 9.23, 9.24, 9.68, 9.77, 9.77, 9.77, 9.68, 9.68, 9.68, 9.68, 9.68, 9.24, 9.23, 9.23, 9.11, 9.11, 8.67, 8.64, 8.64, 8.48, 8.48, 8.48, 8.0, 8.0, 8.0, 8.0, 7.81, 7.81, 8.0, 7.87, 7.61, 7.61, 7.35, 7.72, 7.35, 8.15, 8.0, 8.37, 7.41, 8.42, 8.67, 10.21, 9.03, 9.6, 11.09, 11.75, 12.79, 14.95, 18.15, 20.67, 20.71, 20.71, 18.89, 14.79, 11.95, 10.8, 11.4, 11.98, 12.94, 13.39, 13.86, 15.2, 13.77, 14.22, 13.76, 13.65, 13.21, 13.21, 13.21, 7.01, 7.01, 7.01, 7.01, 6.6, 6.6, 6.6, 6.51, 6.51, 6.51, 6.51, 6.51, 6.51, 6.51, 6.51, 6.51, 6.6, 7.01, 7.01, 7.09, 7.4, 7.52, 8.03, 8.05, 8.49, 8.92, 8.92, 9.32, 9.32, 9.23, 9.23, 9.68, 9.77, 9.77, 9.32, 9.32, 9.32, 9.24, 9.23, 9.23, 9.23, 9.23, 9.11, 9.11, 8.67, 8.64, 8.64, 8.64, 8.64, 8.48, 8.48, 8.0, 8.0, 8.0, 8.0, 7.81, 7.71, 7.71, 7.48, 7.23, 7.23, 7.61, 7.35, 7.44, 6.87, 8.73, 8.0, 7.44, 8.06, 9.03, 9.03, 9.27, 9.65, 10.8, 12.15, 12.39, 14.3, 16.85, 17.99, 17.7, 20.09, 22.04, 18.45, 12.4, 11.03, 11.28, 11.98, 12.5, 12.96, 14.3, 13.81, 12.86, 12.86, 12.74, 12.74, 12.27, 12.27, 12.27, 7.01, 7.01, 7.01, 6.6, 6.51, 6.51, 6.6, 6.51, 6.51, 6.51, 6.51, 6.51, 6.51, 6.51, 6.51, 6.51, 6.6, 7.01, 7.01, 7.26, 7.51, 7.58, 8.05, 8.05, 8.49, 8.92, 8.87, 9.32, 9.23, 9.23, 9.23, 9.32, 9.32, 9.32, 9.32, 9.32, 9.32, 9.32, 9.23, 9.23, 9.23, 9.23, 9.11, 8.64, 8.64, 8.64, 8.64, 8.64, 8.64, 8.64, 8.17, 8.17, 7.74, 7.58, 8.0, 7.71, 7.71, 7.31, 7.08, 6.95, 7.07, 7.07, 7.07, 6.79, 6.62, 8.37, 7.21, 7.21, 8.0, 8.06, 8.67, 9.05, 10.23, 11.2, 12.15, 12.7, 14.17, 15.49, 16.39, 16.1, 18.63, 22.56, 20.55, 14.27, 11.52, 11.28, 11.98, 12.05, 12.52, 12.42, 12.42, 12.41, 11.96, 11.52, 11.52, 11.15, 11.15, 11.15, 7.01, 7.01, 6.6, 6.51, 6.51, 6.51, 6.51, 6.6, 6.6, 6.6, 6.51, 6.51, 6.51, 6.51, 6.51, 6.6, 7.01, 7.01, 7.21, 7.21, 7.4, 7.58, 8.05, 8.49, 8.94, 8.92, 8.87, 9.32, 9.23, 9.23, 9.32, 9.32, 9.32, 9.32, 9.32, 9.32, 9.32, 9.32, 9.23, 8.79, 8.79, 8.67, 8.64, 8.64, 8.64, 8.64, 8.64, 8.64, 8.64, 8.21, 8.17, 8.17, 7.74, 7.69, 7.51, 7.51, 7.51, 7.31, 7.2, 6.95, 6.95, 6.95, 6.7, 6.23, 6.23, 7.81, 7.56, 7.56, 8.37, 8.06, 9.05, 9.05, 10.23, 11.2, 11.75, 12.39, 12.94, 13.99, 15.09, 15.67, 17.03, 20.55, 21.65, 17.19, 12.65, 10.49, 10.63, 11.09, 11.62, 11.62, 11.62, 11.62, 11.18, 10.73, 10.28, 10.25, 10.25, 10.25, 6.6, 6.6, 6.51, 6.1, 6.1, 6.51, 6.51, 6.51, 6.4, 6.28, 6.28, 6.28, 6.28, 6.4, 6.8, 6.6, 6.6, 6.6, 6.79, 6.94, 7.51, 8.03, 8.05, 8.49, 8.92, 8.87, 8.87, 8.87, 9.23, 9.32, 9.32, 9.32, 9.32, 9.32, 9.32, 9.32, 8.87, 8.79, 8.79, 8.77, 8.77, 8.77, 8.77, 8.77, 8.64, 8.64, 8.21, 8.21, 8.21, 8.21, 8.17, 7.74, 7.69, 7.69, 7.69, 7.51, 7.51, 6.8, 6.8, 6.95, 6.95, 6.95, 6.95, 6.15, 5.65, 6.73, 7.06, 7.02, 7.76, 8.06, 8.42, 8.82, 9.65, 10.63, 10.87, 11.83, 12.39, 12.86, 13.87, 15.09, 16.06, 18.05, 20.67, 21.02, 15.04, 9.58, 10.05, 10.52, 10.96, 11.08, 10.7, 10.73, 10.28, 10.25, 9.7, 9.97, 9.97, 9.97, 6.51, 6.1, 6.1, 6.1, 6.1, 6.51, 6.28, 6.28, 6.28, 6.28, 6.28, 6.28, 6.28, 6.8, 6.4, 6.6, 6.6, 6.79, 6.79, 6.97, 7.51, 8.05, 8.49, 8.49, 8.92, 8.86, 8.86, 8.87, 8.87, 9.32, 9.32, 9.32, 9.32, 9.32, 9.32, 8.87, 8.87, 8.77, 8.77, 8.77, 8.77, 8.77, 8.77, 8.77, 8.77, 8.33, 8.21, 8.21, 8.21, 8.17, 8.17, 7.74, 7.69, 7.26, 7.26, 7.26, 7.01, 7.01, 6.8, 6.8, 6.8, 6.56, 6.41, 6.15, 5.35, 6.01, 6.73, 6.64, 7.35, 7.35, 8.42, 8.42, 9.03, 9.65, 10.28, 11.26, 11.88, 11.88, 12.51, 14.07, 15.99, 16.95, 18.55, 22.06, 18.32, 7.6, 9.08, 10.32, 10.8, 10.96, 10.63, 9.74, 9.28, 9.54, 9.75, 9.9, 9.9, 9.9, 6.1, 6.0, 6.0, 6.0, 6.1, 6.28, 6.28, 6.28, 6.28, 6.28, 6.28, 6.28, 6.67, 6.28, 6.28, 6.51, 6.6, 6.79, 6.94, 7.4, 7.51, 8.03, 8.49, 8.47, 8.47, 8.86, 8.86, 8.86, 8.87, 8.87, 9.32, 9.32, 9.32, 8.87, 8.87, 8.87, 8.86, 8.77, 8.77, 8.77, 8.77, 8.77, 8.77, 8.77, 8.33, 8.33, 8.3, 8.17, 8.17, 8.17, 7.74, 7.69, 7.69, 7.26, 7.26, 7.21, 6.79, 6.6, 7.01, 7.01, 6.8, 6.8, 6.41, 5.86, 5.35, 4.74, 5.69, 6.01, 6.64, 7.35, 8.03, 8.38, 8.42, 8.43, 9.65, 10.28, 11.28, 11.88, 12.79, 13.75, 14.95, 15.99, 17.91, 22.05, 10.79, 7.6, 9.33, 10.49, 10.63, 10.96, 10.96, 9.83, 9.66, 9.6, 10.0, 10.55, 10.55, 10.55, 6.0, 6.0, 5.75, 5.75, 5.75, 6.28, 6.28, 6.03, 6.03, 6.03, 6.03, 6.03, 6.28, 6.28, 6.28, 6.51, 6.51, 6.79, 6.94, 7.4, 7.51, 8.03, 8.49, 8.47, 8.47, 8.42, 8.42, 8.86, 8.86, 8.87, 8.87, 8.87, 8.87, 8.87, 8.87, 8.86, 8.77, 8.33, 8.33, 8.33, 8.33, 8.77, 8.77, 8.33, 8.33, 8.3, 7.87, 7.87, 7.87, 7.87, 7.87, 7.26, 7.26, 7.26, 7.37, 6.79, 6.79, 6.79, 6.79, 6.6, 6.51, 6.28, 6.28, 5.86, 5.29, 4.71, 5.06, 4.95, 5.59, 6.64, 7.35, 8.03, 8.03, 7.68, 8.42, 9.04, 10.29, 11.83, 12.7, 13.11, 13.75, 15.35, 18.45, 19.52, 10.6, 7.06, 8.67, 10.18, 9.72, 9.89, 10.27, 10.0, 9.65, 10.04, 10.63, 11.2, 11.2, 11.2, 5.75, 5.75, 5.75, 5.75, 6.13, 6.03, 6.03, 6.03, 6.03, 6.03, 6.03, 6.03, 6.28, 6.28, 6.28, 6.51, 6.6, 6.79, 6.97, 7.51, 7.58, 8.03, 8.49, 8.47, 8.42, 8.42, 8.42, 8.86, 8.86, 8.87, 8.87, 8.87, 8.87, 8.87, 8.86, 8.77, 8.33, 8.33, 8.33, 8.33, 8.33, 8.33, 8.33, 8.33, 8.3, 7.87, 7.87, 7.87, 7.87, 7.87, 7.4, 7.4, 7.4, 7.4, 6.94, 6.94, 6.94, 6.79, 6.79, 6.51, 6.51, 6.51, 5.89, 5.75, 5.29, 4.71, 3.79, 3.2, 6.11, 6.73, 7.06, 7.41, 8.03, 8.03, 8.03, 8.68, 10.28, 11.44, 11.83, 12.15, 12.79, 14.39, 24.09, 20.61, 10.32, 6.07, 7.45, 8.67, 8.91, 8.8, 9.7, 10.15, 10.66, 11.2, 11.2, 12.04, 12.04, 12.04, 5.75, 5.75, 5.75, 5.49, 5.86, 5.86, 6.03, 6.03, 6.03, 6.03, 6.03, 6.03, 6.28, 6.28, 6.28, 6.51, 6.6, 6.79, 7.4, 7.51, 8.03, 8.03, 8.49, 8.47, 8.42, 8.42, 8.42, 8.86, 8.86, 8.86, 8.86, 8.86, 8.87, 8.87, 8.86, 8.77, 8.33, 8.33, 8.33, 8.33, 8.33, 8.33, 8.33, 8.3, 7.87, 7.87, 7.87, 7.87, 7.84, 7.4, 7.4, 6.97, 6.94, 6.94, 6.94, 6.94, 6.94, 6.51, 6.3, 6.3, 6.72, 6.1, 6.1, 6.0, 5.21, 4.94, 4.37, 3.79, 5.37, 6.44, 6.79, 7.06, 7.41, 8.06, 8.06, 8.43, 9.65, 10.87, 11.83, 11.88, 11.88, 13.83, 22.88, 23.83, 12.98, 5.73, 6.16, 8.4, 8.8, 8.88, 10.09, 11.04, 11.75, 12.04, 12.04, 12.14, 12.14, 12.14, 5.49, 5.49, 5.49, 5.49, 5.86, 5.86, 5.86, 5.86, 5.86, 5.86, 5.86, 5.86, 6.03, 6.28, 6.28, 6.51, 6.79, 6.94, 7.51, 7.52, 8.03, 8.05, 8.05, 7.97, 8.41, 8.42, 8.42, 8.86, 8.86, 8.42, 8.42, 8.86, 8.86, 8.86, 8.86, 8.77, 8.33, 8.33, 8.33, 8.33, 8.33, 8.33, 8.3, 7.87, 7.87, 7.87, 7.84, 7.4, 7.4, 7.4, 6.97, 6.94, 7.06, 7.06, 6.94, 6.94, 6.51, 6.47, 6.3, 6.3, 6.3, 6.3, 6.3, 5.6, 5.21, 4.94, 4.71, 4.11, 4.43, 6.11, 6.79, 7.15, 7.06, 7.41, 8.06, 8.43, 8.8, 10.23, 11.26, 11.83, 11.88, 15.03, 19.91, 25.43, 19.15, 8.56, 5.09, 8.3, 10.0, 10.27, 10.27, 11.72, 12.22, 12.3, 11.87, 12.3, 12.3, 12.3, 5.29, 5.29, 5.49, 5.86, 5.86, 5.59, 5.59, 5.59, 5.86, 5.86, 5.86, 5.86, 6.03, 6.28, 6.51, 6.6, 6.79, 6.97, 7.51, 8.03, 8.03, 8.05, 8.03, 7.97, 8.41, 8.42, 8.42, 8.42, 8.42, 8.42, 8.42, 8.42, 8.86, 8.86, 8.86, 8.33, 8.33, 8.33, 8.33, 8.33, 8.3, 8.3, 7.87, 7.87, 7.87, 7.4, 7.4, 7.4, 7.4, 6.97, 7.06, 7.06, 7.06, 7.06, 7.06, 6.51, 6.51, 6.47, 6.47, 6.47, 6.47, 6.47, 5.88, 5.81, 5.47, 5.21, 4.71, 4.43, 4.43, 5.77, 6.11, 6.79, 6.73, 7.41, 8.06, 8.43, 8.4, 9.2, 10.23, 11.26, 12.79, 14.71, 17.9, 24.09, 23.15, 12.7, 7.07, 8.88, 10.94, 10.79, 10.52, 11.03, 11.72, 12.3, 11.87, 11.87, 11.87, 11.87, 5.29, 5.29, 5.29, 5.59, 5.59, 5.59, 5.59, 5.59, 5.59, 5.59, 5.86, 5.86, 6.28, 6.28, 6.51, 6.79, 6.94, 7.4, 7.51, 8.03, 8.05, 8.03, 8.03, 7.97, 8.41, 8.42, 8.42, 8.42, 8.42, 8.42, 8.42, 8.42, 8.86, 8.86, 8.86, 8.77, 8.33, 8.33, 8.33, 8.3, 8.3, 7.87, 7.87, 7.87, 7.4, 7.4, 7.4, 7.51, 7.51, 7.07, 7.06, 6.61, 6.61, 6.61, 6.61, 6.61, 6.51, 6.47, 6.47, 6.51, 6.47, 6.47, 6.04, 5.81, 5.6, 5.21, 4.94, 4.43, 4.71, 5.06, 5.77, 6.11, 6.79, 7.44, 8.05, 8.43, 8.43, 8.95, 9.6, 11.75, 12.7, 14.84, 17.25, 21.64, 22.98, 15.66, 9.05, 9.45, 11.47, 11.3, 10.6, 11.03, 11.3, 12.3, 11.87, 11.87, 11.87, 11.87, 5.29, 5.29, 5.01, 5.35, 5.35, 5.35, 5.35, 5.35, 5.59, 5.86, 5.86, 6.13, 6.28, 6.51, 6.79, 6.79, 6.97, 7.51, 7.58, 7.6, 8.05, 8.03, 7.97, 7.97, 7.97, 8.42, 8.42, 8.42, 8.42, 8.42, 8.42, 8.86, 8.86, 8.86, 8.86, 8.77, 8.33, 8.33, 8.33, 8.3, 8.3, 7.87, 7.87, 7.87, 7.51, 7.51, 7.51, 7.51, 7.07, 7.07, 7.13, 6.68, 6.68, 6.68, 6.61, 6.61, 6.61, 6.61, 6.61, 6.61, 6.6, 6.16, 6.04, 5.81, 5.6, 5.21, 4.94, 4.71, 4.71, 4.71, 4.71, 6.18, 6.82, 6.82, 7.42, 8.05, 8.95, 8.95, 10.25, 11.62, 12.56, 14.64, 16.96, 20.0, 22.29, 16.85, 10.63, 9.45, 10.94, 11.47, 10.79, 10.79, 11.3, 12.04, 12.04, 12.04, 12.04, 12.04, 5.01, 5.01, 5.01, 5.35, 5.35, 5.35, 5.35, 5.35, 5.59, 5.86, 5.86, 6.28, 6.51, 6.6, 6.79, 6.94, 7.51, 7.58, 7.6, 7.6, 8.03, 7.97, 7.97, 7.97, 7.97, 8.41, 8.42, 8.42, 8.42, 8.42, 8.42, 8.86, 8.86, 8.86, 8.86, 8.86, 8.77, 8.33, 8.33, 8.33, 8.3, 7.87, 7.97, 7.97, 7.51, 7.51, 7.51, 7.13, 7.13, 7.13, 7.13, 6.68, 6.68, 6.68, 6.61, 6.61, 6.61, 6.61, 6.61, 6.68, 6.6, 6.16, 6.04, 5.81, 5.6, 5.21, 4.94, 4.94, 4.71, 4.71, 5.01, 6.18, 6.18, 7.44, 7.35, 8.3, 9.24, 9.75, 10.18, 10.75, 12.37, 14.21, 16.05, 18.88, 21.54, 17.91, 11.83, 10.0, 10.53, 11.47, 10.94, 10.53, 11.34, 11.88, 12.4, 12.4, 12.4, 12.4, 5.01, 5.01, 5.35, 5.35, 5.35, 5.35, 5.35, 5.35, 5.86, 5.86, 6.13, 6.28, 6.51, 6.79, 6.94, 7.07, 7.51, 7.6, 7.6, 8.03, 8.03, 7.97, 7.97, 7.97, 7.97, 8.42, 8.42, 8.42, 8.42, 8.42, 8.86, 8.86, 8.86, 8.87, 8.86, 8.86, 8.77, 8.33, 8.33, 8.33, 8.41, 7.97, 7.97, 7.97, 7.52, 7.58, 7.58, 7.13, 7.13, 7.13, 6.71, 6.68, 6.68, 6.68, 6.68, 6.68, 6.68, 6.68, 6.68, 6.68, 6.16, 6.16, 6.04, 5.81, 5.6, 5.37, 5.21, 5.21, 5.21, 5.01, 5.01, 5.21, 5.21, 8.22, 7.35, 8.56, 8.82, 9.75, 10.18, 10.75, 12.09, 13.72, 15.35, 17.89, 20.61, 18.55, 13.83, 10.63, 10.63, 11.26, 10.87, 11.2, 11.04, 11.73, 12.4, 12.98, 12.98, 12.98, 5.01, 5.01, 5.35, 5.35, 5.35, 5.35, 5.35, 5.35, 5.86, 5.86, 6.13, 6.28, 6.51, 6.79, 6.94, 7.07, 7.51, 7.6, 7.6, 8.03, 8.03, 7.97, 7.97, 7.97, 7.97, 8.42, 8.42, 8.42, 8.42, 8.42, 8.86, 8.86, 8.86, 8.87, 8.86, 8.86, 8.77, 8.33, 8.33, 8.33, 8.41, 7.97, 7.97, 7.97, 7.52, 7.58, 7.58, 7.13, 7.13, 7.13, 6.71, 6.68, 6.68, 6.68, 6.68, 6.68, 6.68, 6.68, 6.68, 6.68, 6.16, 6.16, 6.04, 5.81, 5.6, 5.37, 5.21, 5.21, 5.21, 5.01, 5.01, 5.21, 5.21, 8.22, 7.35, 8.56, 9.24, 9.75, 10.18, 10.75, 12.09, 13.72, 15.35, 17.47, 18.73, 18.15, 15.09, 11.88, 11.26, 11.26, 11.64, 11.26, 11.64, 12.15, 12.7, 12.98, 12.98, 12.98]}, {"header": {"dx": 0.06612293990616946, "dy": 0.0552356325346848, "nx": 98, "ny": 59, "la1": 35.046912555036876, "la2": 31.78801023549047, "lo1": -121.43107172385933, "lo2": -114.95102361305473, "refTime": "2026041300", "parameterCategory": 1, "parameterNumber": 3}, "data": [0.0, 0.59, 0.59, 1.16, 1.16, 1.73, 1.65, 2.3, 2.33, 2.33, 2.71, 2.37, 2.57, 2.44, 2.44, 2.57, 1.84, 2.7, 2.39, 2.39, 2.39, 3.77, 3.25, 3.39, 3.16, 3.29, 4.13, 4.8, 5.14, 5.14, 4.13, 3.25, 2.39, 1.76, 0.85, 0.0, -1.6, -3.49, -4.2, -4.07, -3.78, -3.36, -3.61, -2.39, -2.23, -1.62, -0.78, 0.0, 1.52, 3.88, 6.57, 8.3, 9.7, 10.43, 11.14, 11.14, 10.34, 10.34, 9.49, 8.99, 8.18, 8.18, 7.01, 6.4, 6.28, 6.17, 6.35, 6.35, 6.54, 6.54, 6.35, 6.28, 6.4, 6.4, 6.6, 6.28, 5.51, 4.24, 3.13, 2.43, 1.62, 0.79, 0.0, 0.0, 0.0, 0.0, 0.0, 0.0, 0.0, 0.0, 2.4, 4.42, 3.27, 2.47, 1.69, 4.25, 6.7, 7.78, 0.0, 0.0, 0.56, 0.56, 1.11, 1.65, 1.75, 2.3, 2.33, 2.33, 2.37, 2.57, 2.44, 2.31, 2.28, 2.28, 1.75, 2.39, 2.39, 2.57, 2.49, 3.61, 3.77, 3.53, 3.51, 3.25, 3.95, 5.14, 5.14, 5.14, 4.8, 4.25, 4.07, 4.2, 2.47, 0.81, -0.85, -2.44, -4.12, -4.12, -4.34, -3.7, -2.28, -1.6, -0.81, 0.0, 0.81, 3.21, 5.52, 8.12, 9.48, 10.51, 10.81, 10.78, 11.11, 10.75, 10.34, 9.49, 8.99, 8.43, 7.82, 7.01, 7.01, 6.4, 6.28, 6.47, 6.47, 6.47, 6.47, 7.0, 7.2, 7.32, 6.47, 6.28, 6.28, 5.62, 4.81, 4.24, 3.13, 2.43, 1.62, 0.79, 0.0, 0.0, 0.0, 0.0, 0.0, 0.0, 0.0, 0.0, 2.4, 4.42, 3.27, 2.47, 1.69, 4.25, 6.7, 7.78, 0.0, 0.0, 0.56, 0.56, 1.11, 1.18, 1.75, 1.67, 1.78, 2.21, 2.37, 2.23, 2.57, 2.44, 2.23, 1.6, 1.68, 1.68, 1.84, 2.49, 2.35, 2.49, 3.61, 4.54, 4.9, 4.25, 4.25, 4.07, 4.4, 5.06, 5.9, 6.7, 7.97, 7.56, 5.21, 2.58, 0.89, 0.0, -1.72, -1.72, -1.63, 0.0, 0.0, 0.81, 1.68, 3.36, 5.52, 7.36, 8.85, 9.89, 10.86, 11.2, 10.43, 10.43, 10.12, 10.43, 9.6, 8.99, 8.06, 8.06, 7.23, 7.01, 7.01, 6.4, 6.6, 6.6, 6.4, 7.23, 7.93, 8.03, 8.03, 7.2, 6.66, 5.62, 4.76, 4.04, 3.2, 3.13, 2.19, 1.63, 0.77, 0.0, 0.0, 0.0, 0.0, 0.0, 0.0, 0.0, 0.0, 0.89, 2.64, 2.51, 0.89, 0.82, 3.25, 6.15, 7.48, 7.36, 0.0, 0.0, 0.56, 0.56, 1.11, 1.18, 1.75, 1.67, 1.78, 1.69, 2.23, 2.23, 2.57, 2.23, 1.75, 1.6, 0.81, 0.85, 0.85, 1.68, 1.68, 1.22, 2.28, 3.36, 4.13, 4.9, 4.71, 4.2, 3.45, 4.26, 6.73, 8.42, 9.67, 10.09, 8.85, 6.58, 4.37, 1.4, 0.88, 1.84, 2.51, 3.63, 4.71, 5.76, 6.0, 7.36, 8.12, 9.17, 9.89, 10.58, 10.15, 10.51, 10.51, 10.51, 9.7, 9.7, 8.84, 8.18, 8.06, 7.23, 7.23, 7.01, 7.01, 6.4, 6.2, 7.13, 7.93, 9.23, 9.68, 9.5, 8.96, 7.91, 6.54, 5.18, 3.59, 2.41, 1.58, 0.78, 1.54, 0.79, 0.0, 0.0, 0.0, 0.0, 0.0, 0.0, 0.0, 0.0, 0.0, 0.96, 0.89, 0.0, 0.0, 2.47, 5.9, 7.48, 7.36, 6.7, 0.0, 0.0, 0.56, 0.56, 0.59, 1.18, 1.12, 1.67, 1.69, 1.69, 1.71, 1.71, 1.67, 1.94, 1.67, 0.81, 0.74, 0.85, 0.81, 0.81, 1.22, 1.16, 2.46, 2.58, 3.32, 4.8, 5.1, 5.46, 5.59, 5.37, 6.44, 7.44, 7.76, 7.59, 8.54, 7.24, 6.5, 4.05, 2.67, 3.55, 5.89, 6.53, 7.48, 7.36, 7.36, 8.12, 8.85, 9.56, 9.89, 9.8, 9.8, 9.8, 9.48, 9.8, 9.24, 8.84, 7.93, 7.82, 7.45, 7.23, 7.36, 7.36, 6.4, 6.31, 7.79, 9.4, 10.34, 11.29, 11.83, 11.53, 10.48, 9.66, 7.88, 6.35, 4.61, 2.18, 0.81, 0.0, 0.0, 0.0, 0.0, 0.0, 0.0, 0.0, 0.0, 0.0, 0.0, 0.0, 0.0, 0.96, 0.0, 0.0, 2.57, 5.46, 6.7, 6.84, 6.45, 5.72, 0.0, 0.0, 0.0, 0.59, 0.59, 1.12, 1.12, 1.12, 1.69, 1.69, 1.71, 1.61, 1.67, 0.85, 0.89, 0.81, 0.0, 0.0, 0.0, 0.0, 0.89, 0.77, 2.28, 3.7, 3.52, 4.96, 6.01, 6.3, 7.56, 7.56, 6.11, 5.77, 5.37, 4.96, 5.18, 6.09, 6.33, 4.87, 3.49, 3.72, 5.37, 7.9, 7.59, 7.48, 7.48, 8.93, 9.17, 8.76, 8.76, 8.76, 8.42, 8.76, 8.76, 8.76, 8.45, 7.93, 8.18, 7.23, 7.23, 7.23, 7.36, 6.52, 6.43, 8.01, 10.24, 12.22, 12.78, 12.33, 12.23, 11.53, 11.28, 10.35, 10.35, 9.05, 7.08, 4.04, 1.55, 0.0, 0.0, 0.0, 0.0, 0.0, 0.8, 0.89, 0.0, 0.0, 0.0, 0.0, 0.88, 1.63, 2.54, 4.34, 6.04, 6.83, 6.57, 6.7, 5.72, 5.86, 0.0, 0.0, 0.0, 0.59, 0.56, 0.56, 1.12, 1.2, 1.14, 1.07, 1.16, 1.61, 1.75, 0.85, 0.0, 0.0, 0.0, 0.0, 0.0, 0.0, 0.0, 0.0, 0.85, 2.57, 3.52, 4.71, 5.31, 6.87, 7.9, 6.64, 6.64, 5.06, 4.58, 4.26, 4.6, 5.18, 6.45, 7.13, 5.0, 4.01, 6.0, 7.28, 7.9, 8.15, 8.49, 9.0, 9.17, 9.06, 7.24, 7.95, 7.95, 8.12, 8.01, 7.9, 7.25, 7.13, 7.36, 6.73, 6.4, 6.4, 6.52, 6.21, 7.24, 9.92, 13.25, 13.88, 13.41, 11.92, 11.08, 10.73, 9.89, 9.54, 8.89, 9.0, 7.4, 5.46, 3.17, 0.8, 0.0, 0.0, 0.0, 0.0, 0.96, 1.13, 0.0, 0.0, 0.0, 1.84, 3.77, 4.5, 5.86, 6.51, 7.48, 6.57, 5.86, 5.72, 5.72, 5.63, 0.0, 0.0, 0.0, 0.59, 0.56, 0.56, 0.56, 1.14, 1.14, 1.07, 1.16, 1.18, 0.89, 0.94, 0.0, 0.0, 0.0, 0.0, 0.0, 0.0, 0.0, 0.0, 0.0, 0.8, 2.54, 3.8, 3.91, 5.03, 6.64, 6.3, 5.59, 5.69, 5.37, 5.31, 4.71, 4.5, 4.07, 4.01, 4.9, 5.59, 5.72, 6.52, 6.98, 7.21, 7.56, 8.82, 8.12, 8.01, 7.36, 6.97, 6.42, 7.36, 7.51, 7.38, 7.01, 6.31, 6.52, 5.67, 5.67, 5.48, 5.72, 6.57, 9.67, 12.23, 13.83, 13.88, 12.64, 11.08, 9.8, 8.74, 7.88, 6.42, 5.69, 4.74, 4.94, 3.61, 2.37, 0.83, 0.0, 0.98, 2.4, 1.74, 2.21, 1.74, 0.87, 1.66, 3.11, 5.1, 6.53, 7.18, 7.22, 7.15, 6.45, 6.33, 5.72, 5.06, 5.2, 5.76, 0.0, 0.0, 0.0, 0.0, 0.56, 0.56, 0.56, 0.57, 1.14, 1.07, 0.58, 0.59, 0.0, 0.94, 0.89, 0.89, 0.0, 0.0, 0.0, 0.0, 0.0, 0.0, 0.0, 0.89, 1.73, 2.54, 2.49, 3.0, 4.14, 4.0, 3.8, 4.29, 5.06, 5.03, 4.71, 4.2, 2.7, 2.7, 3.61, 5.21, 6.63, 7.07, 6.87, 7.21, 7.27, 6.53, 7.27, 6.97, 7.36, 7.36, 7.95, 6.57, 6.7, 6.56, 6.43, 5.8, 5.48, 4.93, 4.75, 4.87, 5.9, 8.03, 10.96, 13.11, 13.49, 12.16, 11.19, 9.67, 8.25, 6.47, 4.91, 3.65, 2.37, 2.13, 1.45, 1.6, 0.78, 0.0, 0.98, 3.13, 5.26, 3.47, 4.15, 4.11, 4.36, 5.59, 6.58, 7.48, 7.15, 7.44, 6.62, 6.09, 5.77, 5.6, 5.6, 5.06, 5.14, 6.42, 0.0, 0.0, 0.0, 0.0, 0.56, 0.56, 0.56, 0.54, 0.57, 0.57, 0.58, 0.0, 0.0, 0.0, 0.0, 0.0, 0.0, 0.89, 1.16, 1.26, 1.26, 1.2, 2.69, 2.54, 2.54, 2.54, 2.66, 3.0, 2.82, 2.69, 3.8, 3.91, 4.29, 4.75, 4.0, 3.45, 2.39, 1.65, 3.52, 6.3, 6.01, 6.39, 6.32, 5.89, 5.49, 5.76, 5.64, 5.52, 7.08, 8.12, 8.01, 8.01, 7.51, 6.33, 5.72, 5.93, 5.6, 4.87, 4.13, 4.83, 7.41, 10.85, 12.79, 12.79, 12.27, 11.14, 9.54, 8.74, 7.3, 5.61, 3.18, 1.43, 0.72, 0.72, 0.0, 0.0, 0.0, 1.13, 3.95, 6.07, 8.14, 9.14, 6.7, 7.02, 7.27, 8.22, 8.16, 8.09, 7.28, 6.53, 5.99, 5.2, 4.87, 4.75, 4.75, 4.87, 6.15, 7.59, 0.0, 0.0, 0.0, 0.0, 0.0, 0.56, 0.56, 0.56, 0.57, 0.57, 0.57, 0.0, 0.0, 0.0, 0.0, 0.0, 0.0, 0.57, 1.11, 1.73, 2.41, 2.6, 2.71, 2.83, 2.39, 2.46, 2.69, 2.54, 2.54, 2.46, 2.58, 3.77, 3.72, 2.64, 1.65, 1.22, 2.49, 3.7, 4.12, 5.38, 6.53, 5.89, 5.89, 6.01, 4.96, 4.83, 4.71, 4.96, 6.53, 7.18, 8.85, 9.8, 8.66, 8.3, 8.12, 8.42, 8.95, 7.38, 5.21, 6.18, 9.24, 12.3, 12.7, 12.79, 11.54, 10.75, 10.71, 10.47, 9.55, 7.27, 5.56, 4.24, 2.95, 1.44, 0.0, -1.8, 0.0, 4.92, 8.14, 9.9, 10.48, 10.81, 10.81, 9.2, 9.48, 9.43, 8.94, 7.85, 7.11, 5.6, 5.1, 4.06, 4.17, 3.42, 4.17, 5.76, 7.59, 8.65, 0.0, 0.0, 0.0, 0.0, 0.0, 0.0, 0.56, 0.56, 0.57, 0.57, 0.0, 0.0, 0.0, 0.0, -0.57, 0.0, 0.0, 0.0, 0.58, 1.14, 1.67, 1.74, 1.67, 2.24, 1.23, 2.33, 2.33, 2.33, 2.71, 2.49, 2.49, 2.7, 2.69, 1.75, 0.0, 0.0, 1.5, 3.36, 4.2, 5.06, 6.04, 5.76, 5.1, 4.71, 4.75, 4.65, 5.69, 6.01, 7.21, 6.95, 8.3, 9.96, 10.9, 12.27, 11.83, 11.88, 13.51, 12.42, 7.9, 7.12, 10.6, 12.8, 12.7, 11.83, 11.28, 12.22, 14.42, 15.73, 15.39, 14.7, 13.28, 11.52, 8.85, 4.12, -2.8, -2.98, 3.82, 8.56, 10.94, 11.37, 11.53, 11.25, 11.14, 11.14, 11.06, 10.23, 9.16, 7.93, 6.69, 5.11, 4.24, 2.99, 2.95, 3.39, 5.14, 7.18, 9.0, 9.34, 0.0, 0.0, 0.0, 0.0, 0.0, 0.0, 0.0, 0.0, 0.0, 0.0, 0.0, 0.0, 0.0, 0.0, -0.57, -0.56, -0.59, 0.0, 0.0, 0.0, 0.0, 0.59, 0.56, 0.56, 0.59, 1.11, 1.11, 1.72, 1.72, 1.67, 1.64, 2.41, 1.62, 0.78, 0.78, 0.0, 0.72, 2.47, 3.32, 4.0, 4.96, 4.96, 5.1, 4.16, 4.74, 5.59, 7.07, 7.76, 7.21, 7.21, 7.33, 8.3, 9.52, 11.72, 13.15, 13.62, 14.56, 14.67, 10.01, 8.95, 11.15, 11.66, 11.92, 10.55, 11.09, 13.35, 15.53, 18.68, 19.26, 20.7, 20.38, 17.93, 13.91, 6.7, -3.39, -0.0, 7.85, 11.75, 12.97, 12.68, 12.07, 11.47, 10.01, 9.66, 11.19, 10.59, 8.86, 7.29, 5.81, 4.46, 3.47, 2.95, 3.78, 5.06, 7.18, 8.22, 8.93, 9.62, 0.0, 0.0, 0.0, 0.0, 0.0, 0.0, 0.0, 0.0, 0.0, 0.0, 0.0, 0.0, 0.0, 0.0, -0.54, -0.56, -0.56, -0.59, -0.56, -0.55, 0.0, 0.0, 0.0, 0.0, 0.0, 0.58, 0.58, 0.58, 0.58, 0.58, 0.59, 0.8, 0.0, 0.85, 0.78, 0.78, 0.74, 1.6, 2.44, 3.27, 4.12, 4.12, 4.46, 5.03, 5.93, 5.93, 6.44, 7.07, 6.52, 6.87, 6.87, 7.07, 7.4, 8.67, 9.21, 8.8, 9.08, 10.19, 10.87, 10.23, 11.52, 11.56, 11.21, 11.21, 10.75, 12.04, 13.6, 14.27, 16.17, 15.47, 17.31, 15.9, 12.47, 6.17, 0.0, 4.6, 11.62, 14.46, 14.2, 13.41, 12.72, 10.43, 8.93, 7.38, 8.68, 8.25, 7.08, 5.51, 4.86, 3.73, 3.61, 4.5, 5.86, 7.59, 7.9, 8.93, 9.26, 9.96, 0.0, 0.0, 0.0, 0.0, 0.0, 0.0, 0.0, 0.0, 0.0, 0.0, 0.0, 0.0, 0.0, 0.0, -0.56, -0.56, -0.56, -0.56, -0.56, -0.59, -0.55, -0.58, -0.55, 0.0, 0.0, 0.0, 0.0, 0.0, 0.0, 0.0, 0.0, 0.0, 0.0, 0.0, 0.0, 0.0, 1.09, 1.67, 2.28, 2.54, 3.27, 3.52, 3.6, 5.03, 5.03, 5.93, 5.93, 5.37, 5.69, 5.69, 6.01, 6.7, 6.13, 5.81, 5.01, 4.74, 3.6, 5.1, 8.85, 11.5, 11.4, 10.6, 10.62, 11.21, 11.13, 11.56, 12.18, 10.8, 9.08, 9.5, 10.71, 11.41, 8.25, 4.7, 4.06, 10.01, 13.89, 14.47, 13.67, 12.77, 12.02, 9.92, 7.5, 5.99, 3.66, 4.81, 4.66, 4.13, 3.6, 4.01, 4.92, 5.86, 7.94, 8.57, 8.85, 9.96, 10.63, 10.63, 0.0, 0.0, 0.0, 0.0, 0.0, 0.0, 0.0, 0.0, 0.0, 0.0, 0.0, 0.0, 0.0, 0.0, 0.0, -0.56, -0.56, -0.56, -0.56, -0.56, -0.59, -0.55, -0.58, -0.55, -0.57, -0.57, -0.56, 0.0, 0.0, 0.0, 0.0, 0.0, 0.0, 0.0, 0.0, 0.0, 0.78, 1.6, 2.28, 2.33, 2.4, 3.4, 4.71, 5.03, 4.75, 4.75, 4.75, 4.75, 5.69, 5.44, 5.72, 5.72, 6.32, 5.03, 4.02, 2.32, 2.26, 4.66, 8.85, 10.23, 9.65, 9.1, 8.8, 9.33, 8.63, 8.8, 8.63, 7.81, 6.69, 6.7, 7.36, 7.49, 5.81, 4.85, 8.61, 12.84, 14.42, 13.51, 12.19, 12.19, 11.28, 8.83, 7.0, 4.98, 3.29, 2.49, 2.37, 3.42, 4.8, 6.31, 7.48, 7.9, 8.16, 8.49, 9.2, 10.19, 10.82, 10.82, 0.0, 0.0, 0.0, 0.0, 0.0, 0.0, 0.0, 0.0, 0.0, 0.0, 0.0, 0.0, 0.0, 0.0, -0.56, -0.56, -0.56, -0.56, -1.18, -1.11, -0.59, -0.55, -0.58, -0.58, -1.09, -1.14, -1.14, -1.12, -1.12, -1.17, -1.17, -1.17, -1.14, -1.09, -0.78, 0.0, 0.0, 0.0, 1.26, 1.14, 2.4, 4.16, 4.46, 4.16, 5.03, 5.03, 5.03, 6.01, 5.72, 4.96, 4.66, 4.88, 4.88, 4.66, 4.44, 3.52, 3.3, 4.4, 6.2, 7.68, 7.95, 7.81, 6.52, 6.7, 6.7, 6.07, 7.07, 6.64, 6.71, 6.7, 6.6, 6.02, 4.95, 6.5, 10.47, 12.96, 13.36, 13.13, 11.54, 10.72, 10.35, 9.05, 7.32, 5.68, 4.92, 4.2, 2.59, 6.7, 7.82, 8.42, 7.8, 7.44, 8.16, 9.53, 10.24, 10.81, 10.82, 10.82, 0.0, 0.0, 0.0, 0.0, 0.0, 0.0, 0.0, 0.0, 0.0, 0.0, 0.0, 0.0, 0.0, -0.56, -0.54, -0.56, -1.12, -1.12, -1.12, -1.18, -1.11, -1.73, -1.1, -1.15, -1.15, -1.71, -1.79, -1.69, -2.33, -2.33, -2.21, -2.3, -2.33, -2.23, -1.71, -1.56, -0.78, -1.22, 0.0, 1.32, 3.91, 5.03, 5.03, 5.03, 4.71, 4.71, 4.96, 4.96, 4.66, 4.88, 3.87, 3.7, 3.7, 4.66, 3.7, 3.3, 3.45, 4.4, 5.45, 6.71, 6.71, 6.98, 6.64, 6.87, 6.28, 5.15, 4.74, 5.72, 6.98, 6.7, 6.6, 6.31, 6.6, 8.25, 8.96, 9.67, 9.66, 9.85, 9.63, 8.71, 8.2, 7.15, 7.11, 5.95, 6.7, 6.7, 7.36, 7.48, 8.12, 8.3, 8.18, 7.24, 8.22, 10.19, 10.9, 10.58, 9.83, 9.83, 0.0, 0.0, 0.0, 0.0, 0.0, 0.0, 0.0, 0.0, 0.0, 0.0, 0.0, 0.0, -0.56, -0.54, -0.57, -0.82, -1.14, -1.14, -1.12, -1.18, -1.65, -2.28, -2.3, -2.41, -2.49, -2.42, -2.21, -3.25, -3.16, -2.8, -2.77, -3.42, -3.57, -3.42, -3.42, -2.77, -2.8, -2.3, -0.81, 0.0, 2.44, 3.63, 3.7, 4.4, 4.88, 4.66, 4.66, 3.52, 3.7, 3.7, 3.45, 3.45, 3.7, 3.7, 3.45, 4.4, 4.4, 5.45, 6.71, 6.97, 6.71, 6.98, 6.69, 5.59, 5.37, 5.06, 5.37, 5.59, 5.38, 6.71, 6.85, 7.17, 8.57, 7.49, 5.47, 3.24, 2.45, 3.2, 4.06, 4.91, 4.07, 4.87, 5.72, 6.62, 7.24, 7.51, 7.12, 6.44, 7.51, 7.28, 7.79, 8.3, 9.26, 10.19, 11.25, 10.51, 9.8, 9.8, 0.0, 0.0, 0.0, 0.0, 0.0, 0.0, 0.0, 0.0, 0.0, 0.0, -0.54, -0.56, -0.54, -0.57, -1.2, -1.12, -1.14, -1.14, -0.82, -1.62, -1.62, -2.21, -3.35, -3.25, -3.25, -2.39, -1.68, -1.69, -1.78, -2.19, -2.3, -2.8, -3.3, -3.45, -3.94, -3.94, -3.94, -2.8, -1.11, 0.56, 2.28, 3.45, 3.45, 3.3, 3.32, 3.61, 3.7, 3.52, 3.52, 3.7, 3.3, 3.45, 3.7, 3.3, 3.8, 4.2, 5.43, 6.05, 6.31, 6.97, 6.71, 6.69, 5.72, 6.01, 5.69, 5.69, 6.01, 6.24, 5.64, 5.41, 5.55, 6.61, 6.89, 5.0, 0.79, -2.4, -3.9, -3.9, -0.8, 0.0, 1.57, 3.23, 5.06, 6.56, 7.38, 7.19, 6.67, 6.36, 5.89, 6.53, 7.12, 9.06, 9.56, 10.28, 10.15, 10.01, 8.84, 8.84, 0.0, 0.0, 0.0, 0.0, 0.0, 0.0, 0.0, 0.0, -0.57, -0.57, -0.57, -0.57, -0.57, -1.14, -1.2, -1.12, -1.12, -1.12, -1.67, -1.69, -1.62, -1.69, -2.21, -2.33, -2.3, -1.75, -1.18, -1.12, -1.12, -0.56, -1.12, -1.18, -1.75, -2.83, -3.52, -4.0, -3.97, -2.8, -1.15, 1.09, 2.9, 3.42, 3.45, 3.45, 3.32, 3.25, 3.3, 3.7, 2.58, 2.28, 2.28, 3.52, 3.7, 4.66, 4.6, 4.83, 6.57, 6.71, 6.97, 5.69, 5.98, 5.98, 5.72, 6.01, 5.3, 5.59, 6.32, 6.53, 7.18, 6.2, 6.2, 7.28, 8.57, 4.98, -0.79, -5.55, -8.85, -8.06, -4.87, -0.78, 2.37, 4.93, 6.43, 6.67, 6.65, 6.43, 6.65, 7.11, 7.93, 6.62, 8.42, 9.89, 10.18, 9.53, 9.13, 8.66, 7.85, 7.85, -0.56, -0.56, -0.56, -0.56, -0.54, -0.57, -0.57, -0.57, -0.57, -0.57, -0.57, -1.14, -1.14, -1.14, -1.14, -1.12, -1.67, -1.67, -2.3, -1.65, -1.11, -0.56, -1.18, -1.11, -1.16, -1.16, -1.16, -0.59, -0.59, -0.59, 0.0, 0.0, -0.59, -1.18, -2.33, -3.35, -3.49, -2.39, 0.0, 1.69, 3.39, 3.89, 3.91, 3.45, 3.45, 3.32, 3.25, 2.28, 2.28, 2.28, 2.58, 3.52, 4.66, 4.88, 5.45, 6.44, 6.57, 7.24, 5.92, 4.88, 4.96, 5.06, 5.21, 5.36, 5.89, 6.64, 6.64, 7.35, 7.64, 8.75, 8.85, 11.45, 13.64, 11.05, -5.29, -6.79, -7.69, -7.27, -4.5, 0.0, 4.17, 6.57, 7.23, 7.01, 6.52, 6.65, 7.38, 8.56, 10.07, 8.01, 8.85, 9.48, 9.43, 9.43, 8.38, 7.85, 7.93, 7.93, -0.57, -0.57, -0.54, -0.57, -0.57, -0.57, -0.57, -0.57, -0.57, -1.14, -1.14, -1.14, -1.14, -1.14, -1.78, -1.67, -1.67, -1.67, -2.19, -2.3, -1.73, -1.16, -1.16, -1.1, -0.58, -0.58, -0.58, -0.58, -0.58, -0.55, -0.58, -0.58, 0.0, -0.58, -1.16, -2.28, -1.73, -0.58, 0.57, 2.33, 3.53, 4.05, 4.05, 3.91, 3.42, 3.45, 3.39, 2.39, 2.28, 3.3, 3.7, 4.88, 5.1, 5.69, 5.69, 5.45, 6.42, 7.36, 6.16, 4.34, 4.26, 4.12, 4.96, 6.18, 6.64, 7.35, 7.35, 6.73, 7.06, 8.06, 9.3, 10.36, 13.14, 9.83, 3.47, -3.58, -4.66, -3.72, -0.74, 1.52, 4.4, 5.86, 6.4, 5.73, 6.52, 7.25, 8.66, 10.43, 11.38, 11.38, 9.48, 9.48, 9.08, 8.66, 8.2, 7.34, 7.34, 7.34, -0.57, -0.57, -0.57, -0.57, -0.57, -0.57, -1.14, -1.14, -1.14, -1.14, -1.14, -1.14, -1.14, -1.69, -1.78, -1.78, -1.78, -1.78, -2.19, -2.3, -2.3, -2.28, -1.73, -1.63, -1.15, -1.15, -1.15, -1.15, -1.15, -1.15, -0.58, -0.55, -0.57, -0.57, -1.14, -1.14, -0.55, 0.0, 1.14, 2.84, 3.5, 3.86, 4.05, 3.57, 3.42, 3.45, 3.21, 3.25, 3.61, 3.61, 4.8, 4.8, 4.8, 4.8, 4.6, 5.72, 5.49, 6.42, 6.71, 5.72, 4.42, 4.16, 5.59, 6.64, 6.95, 6.95, 6.64, 7.56, 6.79, 6.44, 4.83, 4.54, 7.52, 13.19, 10.8, 4.34, 0.0, -1.2, 0.0, 0.74, 1.52, 2.22, 2.97, 4.17, 6.43, 8.66, 10.51, 10.81, 11.38, 12.01, 10.34, 9.08, 8.31, 7.85, 7.34, 7.34, 7.34, 7.34, -1.14, -1.14, -1.14, -1.14, -1.14, -1.14, -1.14, -1.14, -1.14, -1.69, -1.69, -1.69, -1.69, -1.69, -1.69, -1.69, -1.69, -1.78, -2.19, -2.3, -2.3, -2.3, -2.28, -2.28, -2.28, -1.71, -1.71, -1.2, -1.14, -1.15, -1.15, -1.09, -1.14, -1.14, -1.14, -1.14, -0.55, 0.0, 1.76, 2.96, 3.5, 4.02, 4.05, 3.39, 3.42, 2.9, 2.9, 2.77, 2.93, 3.45, 3.45, 4.72, 4.36, 4.8, 4.6, 4.66, 4.44, 4.71, 5.98, 5.72, 4.71, 4.16, 5.24, 6.18, 5.76, 5.89, 6.73, 6.73, 6.73, 2.51, 0.82, 1.57, 5.5, 9.99, 12.24, 12.24, 7.37, 1.63, -2.42, -2.57, -1.54, -0.73, 1.42, 5.0, 8.76, 10.18, 10.51, 10.84, 11.14, 11.31, 11.37, 9.5, 7.77, 7.36, 7.11, 7.11, 7.11, 7.11, -1.14, -1.14, -1.14, -1.14, -1.14, -1.14, -1.14, -1.69, -1.69, -1.81, -1.71, -1.71, -1.69, -1.69, -1.69, -1.69, -1.69, -1.78, -2.19, -2.3, -2.3, -2.3, -2.3, -2.28, -2.28, -2.28, -2.25, -1.71, -1.71, -1.71, -1.15, -1.15, -1.14, -1.14, -1.14, -1.15, -0.58, 0.57, 1.74, 2.82, 3.47, 4.02, 3.53, 3.39, 2.87, 2.9, 2.9, 2.9, 2.9, 3.42, 3.42, 3.45, 3.34, 3.39, 3.61, 4.4, 4.44, 4.21, 4.44, 5.72, 5.72, 6.01, 4.83, 5.1, 5.1, 5.59, 6.39, 7.06, 5.49, 3.06, 1.54, 2.32, 3.9, 7.27, 9.93, 12.67, 13.1, 6.57, -0.85, -4.43, -3.47, 0.0, 4.6, 8.57, 10.82, 11.54, 10.43, 10.43, 10.43, 10.01, 10.59, 10.34, 8.16, 7.34, 7.11, 7.13, 6.57, 6.57, -1.14, -1.14, -1.14, -1.14, -1.69, -1.69, -1.69, -1.69, -1.69, -1.71, -1.71, -1.71, -1.71, -1.71, -1.71, -1.81, -1.69, -2.33, -2.33, -2.19, -2.3, -2.3, -2.3, -2.3, -2.28, -2.28, -2.28, -2.39, -2.25, -1.71, -1.71, -1.71, -1.71, -1.71, -1.71, -1.15, 0.0, 1.67, 2.82, 3.47, 3.34, 3.5, 3.53, 3.39, 3.39, 3.39, 3.57, 3.42, 3.42, 3.42, 3.42, 2.9, 2.77, 2.93, 3.39, 4.07, 3.45, 3.52, 3.27, 4.0, 5.69, 5.64, 4.66, 4.42, 5.44, 5.69, 7.06, 5.76, 4.71, 3.25, 2.41, 1.54, 2.35, 4.91, 7.33, 8.14, 9.51, 8.52, 2.45, -2.84, -1.4, 4.81, 8.55, 10.19, 10.82, 10.78, 11.06, 10.34, 9.6, 8.72, 8.68, 9.41, 9.09, 7.82, 7.34, 7.03, 6.48, 6.48, -1.14, -1.14, -1.14, -1.69, -1.69, -1.69, -1.69, -1.69, -1.69, -1.71, -1.71, -1.71, -1.71, -1.71, -1.71, -1.81, -1.69, -1.78, -2.33, -2.33, -2.19, -2.3, -2.3, -2.3, -2.3, -2.28, -2.28, -2.28, -2.28, -2.28, -1.73, -1.73, -2.28, -1.73, -1.73, -0.58, 0.57, 1.66, 2.82, 2.82, 3.5, 3.37, 3.53, 3.89, 4.08, 4.08, 3.57, 3.57, 3.42, 3.42, 2.9, 2.9, 2.77, 2.93, 3.45, 4.13, 3.39, 3.3, 3.45, 4.0, 4.07, 4.6, 4.2, 4.83, 5.69, 6.95, 5.64, 4.2, 3.21, 3.25, 2.34, 0.78, 0.0, 0.79, 2.39, 2.43, 3.28, 6.68, 5.76, 1.63, 2.8, 4.55, 7.48, 9.57, 9.48, 10.12, 10.07, 9.77, 8.61, 7.82, 7.11, 7.4, 9.43, 8.06, 7.16, 6.69, 5.63, 5.63, -1.2, -1.2, -1.78, -1.78, -1.69, -1.69, -1.69, -1.69, -1.71, -1.71, -1.71, -1.71, -1.71, -1.71, -1.71, -1.71, -1.69, -1.69, -1.78, -2.33, -2.33, -2.19, -2.3, -2.3, -2.3, -2.3, -2.3, -2.3, -2.3, -1.65, -1.65, -1.65, -1.65, -1.65, -1.16, 0.0, 1.12, 2.28, 2.82, 2.96, 3.37, 3.37, 4.05, 4.06, 4.75, 4.08, 3.57, 2.9, 2.93, 2.9, 2.93, 3.45, 3.45, 3.42, 3.42, 3.45, 3.68, 3.61, 3.32, 4.0, 4.07, 3.11, 4.0, 5.1, 6.32, 6.53, 5.52, 3.21, 0.85, 0.78, 1.58, 1.61, 0.77, -0.79, -2.39, -2.37, -0.79, 3.28, 6.78, 6.5, 4.93, 4.45, 6.15, 7.17, 8.79, 8.66, 8.1, 7.45, 7.11, 6.47, 5.79, 5.67, 6.52, 7.88, 7.29, 5.81, 5.63, 5.63, -1.78, -1.78, -1.78, -1.78, -1.69, -1.69, -1.69, -1.71, -1.71, -1.71, -1.71, -1.71, -1.61, -1.61, -1.71, -1.71, -1.69, -1.69, -2.21, -2.33, -2.33, -2.19, -2.19, -2.3, -2.3, -2.3, -2.3, -2.3, -2.3, -1.75, -1.75, -1.75, -1.75, -1.16, 0.0, 0.56, 1.17, 2.3, 2.84, 2.84, 3.37, 3.37, 3.53, 3.89, 4.08, 4.75, 3.91, 3.45, 3.45, 3.94, 4.12, 3.91, 3.91, 4.08, 3.57, 3.57, 2.9, 2.8, 3.11, 3.06, 2.47, 3.21, 4.6, 5.89, 5.76, 5.64, 6.05, 4.6, 1.65, 0.0, 0.77, 3.91, 4.71, 3.2, -1.58, -3.93, -3.18, -0.81, 3.19, 6.44, 6.54, 5.72, 6.34, 6.98, 6.97, 7.03, 5.63, 4.31, 3.58, 3.69, 3.58, 3.98, 4.3, 6.31, 5.81, 5.72, 5.81, 5.81, -1.78, -1.78, -1.78, -1.69, -1.69, -1.69, -1.71, -1.71, -1.71, -1.71, -1.71, -1.71, -1.73, -1.73, -1.71, -1.71, -1.81, -2.21, -2.21, -2.33, -2.33, -2.33, -2.19, -2.3, -2.33, -2.33, -2.33, -2.33, -1.67, -1.67, -1.78, -1.67, -1.18, -0.55, 0.0, 1.12, 1.74, 2.3, 2.84, 2.84, 3.37, 3.37, 3.53, 3.39, 3.57, 3.91, 4.06, 3.91, 3.91, 4.08, 3.57, 3.39, 2.87, 3.39, 3.39, 2.87, 2.9, 2.39, 2.3, 2.47, 3.21, 3.88, 5.38, 5.76, 4.96, 4.71, 5.38, 5.69, 4.66, 2.26, 2.64, 5.06, 7.11, 7.57, 3.28, -2.47, -3.91, -2.47, 0.0, 3.96, 6.34, 7.77, 7.33, 6.94, 5.62, 3.99, 2.93, 1.42, 1.42, 1.42, 1.42, 2.12, 2.89, 3.69, 5.17, 5.1, 5.81, 5.81, -1.69, -1.69, -1.69, -1.69, -1.69, -1.69, -1.71, -1.71, -1.71, -1.71, -1.71, -1.73, -1.73, -1.73, -1.71, -1.71, -2.37, -2.37, -2.21, -2.21, -2.33, -2.33, -2.86, -2.86, -2.86, -2.86, -2.33, -2.21, -1.68, -1.71, -1.69, -1.12, -0.56, 0.0, 0.57, 1.67, 2.3, 2.84, 2.84, 2.84, 2.84, 2.84, 3.53, 3.39, 2.87, 2.87, 2.99, 3.53, 3.53, 3.39, 2.87, 2.87, 2.33, 2.33, 2.33, 2.33, 2.25, 2.28, 2.83, 3.52, 4.07, 4.71, 4.83, 4.6, 4.96, 3.91, 4.03, 4.66, 5.45, 4.4, 4.12, 4.0, 4.65, 5.68, 6.81, 0.81, -1.6, -0.82, 0.8, 2.95, 5.9, 7.62, 7.29, 5.77, 4.1, 2.8, 1.14, 0.0, 0.0, 0.0, 0.72, 1.43, 2.91, 4.31, 5.02, 5.1, 5.81, 5.81, -1.69, -1.69, -1.69, -1.69, -1.69, -1.71, -1.71, -1.71, -1.71, -1.71, -1.61, -1.73, -1.63, -1.63, -2.23, -2.23, -2.23, -2.23, -2.37, -2.21, -2.86, -2.86, -2.86, -2.86, -2.71, -2.71, -2.71, -2.21, -1.81, -1.68, -0.54, 0.0, 0.0, 0.57, 1.18, 2.33, 2.33, 2.84, 2.84, 2.84, 2.84, 2.84, 2.99, 2.87, 2.87, 2.87, 2.87, 2.87, 2.87, 2.87, 2.33, 2.33, 2.33, 2.33, 2.33, 2.9, 2.93, 2.97, 3.32, 4.2, 4.66, 4.83, 5.98, 4.96, 4.6, 4.12, 3.27, 3.27, 3.7, 4.6, 4.92, 3.11, 0.76, 0.81, 4.35, 5.1, 2.37, 0.82, 2.18, 2.81, 4.44, 5.1, 4.44, 4.37, 2.9, 1.71, 0.56, 0.0, 0.0, 0.83, 2.44, 2.82, 4.31, 5.18, 5.9, 5.51, 4.95, 4.95, -1.69, -1.69, -1.69, -1.69, -1.71, -1.71, -1.71, -1.71, -1.71, -1.71, -1.73, -1.76, -1.76, -1.73, -2.23, -2.23, -2.23, -2.23, -2.37, -2.71, -2.86, -2.86, -2.89, -2.89, -2.89, -2.89, -2.37, -2.21, -1.69, -1.14, 0.0, 0.0, 0.58, 1.14, 1.76, 2.33, 2.33, 2.21, 2.3, 2.3, 2.84, 2.99, 2.87, 2.87, 2.87, 2.87, 2.87, 2.33, 2.33, 2.33, 2.23, 2.23, 2.23, 2.23, 2.9, 3.45, 4.16, 4.42, 4.66, 5.32, 5.92, 5.98, 5.72, 5.72, 4.96, 4.96, 4.96, 3.8, 3.7, 4.6, 4.8, 3.53, 1.16, 0.0, 0.82, 6.01, 6.4, 3.98, 2.12, 1.47, 2.16, 2.2, 2.13, 2.2, 2.2, 1.69, 1.63, 1.67, 3.07, 3.91, 4.75, 5.48, 5.11, 5.18, 5.02, 5.64, 5.02, 5.02, -1.69, -1.69, -1.81, -1.71, -1.71, -1.71, -1.71, -1.71, -2.23, -1.73, -1.76, -1.76, -1.76, -2.26, -2.26, -2.26, -2.23, -2.23, -2.89, -3.05, -3.56, -2.89, -2.89, -2.89, -2.89, -2.89, -2.37, -1.69, -1.14, -0.56, 0.0, 0.0, 0.57, 1.14, 1.69, 2.23, 2.33, 2.33, 2.33, 2.21, 2.87, 2.87, 2.87, 2.87, 2.87, 2.87, 2.33, 2.23, 2.23, 2.35, 2.35, 2.35, 2.35, 2.9, 3.42, 4.12, 4.63, 5.32, 5.08, 5.32, 5.34, 5.92, 5.98, 5.45, 5.21, 4.88, 4.6, 3.88, 4.07, 4.8, 4.4, 4.48, 2.32, 0.78, 1.6, 5.83, 8.34, 6.46, 3.24, 1.58, 1.41, 1.39, 1.39, 1.44, 2.14, 2.19, 3.35, 5.51, 6.33, 7.01, 6.31, 6.2, 5.45, 4.31, 4.37, 3.62, 4.3, 4.3, -2.37, -2.37, -2.23, -2.23, -1.71, -1.71, -2.23, -2.23, -2.4, -1.63, -1.76, -1.76, -2.12, -2.26, -2.26, -2.26, -2.73, -2.89, -3.37, -3.37, -3.37, -3.37, -2.89, -2.89, -2.89, -2.89, -2.21, -1.69, -1.12, -0.56, 0.0, 0.0, 1.09, 1.69, 1.69, 1.69, 1.69, 2.33, 2.33, 2.33, 2.87, 2.87, 2.87, 2.87, 2.75, 2.23, 2.23, 2.23, 1.79, 2.25, 2.25, 2.77, 2.77, 3.94, 4.6, 4.6, 5.29, 5.06, 5.08, 5.08, 5.32, 5.08, 4.8, 4.83, 4.83, 4.6, 4.0, 3.88, 4.07, 3.95, 4.72, 4.01, 4.52, 3.83, 4.01, 4.77, 6.64, 7.27, 5.6, 3.64, 2.99, 2.15, 2.15, 2.15, 2.82, 4.5, 6.09, 6.77, 7.44, 7.01, 6.28, 5.35, 4.66, 3.95, 2.98, 2.21, 2.93, 2.93, -2.37, -2.37, -2.23, -2.23, -2.23, -2.4, -2.23, -2.23, -2.26, -1.76, -1.65, -2.29, -2.29, -2.26, -2.26, -2.26, -2.73, -3.37, -3.37, -3.4, -3.4, -3.37, -3.37, -2.89, -2.89, -2.21, -1.69, -1.12, -0.56, 0.0, 0.0, 1.15, 1.15, 1.71, 1.79, 1.69, 1.69, 1.69, 2.23, 2.33, 2.33, 2.87, 2.9, 3.19, 2.77, 2.35, 2.23, 2.35, 2.25, 2.39, 2.93, 3.45, 3.94, 4.4, 4.6, 5.29, 5.29, 5.06, 4.66, 4.66, 4.66, 4.66, 4.8, 4.83, 5.06, 4.8, 4.0, 3.88, 4.07, 4.07, 4.13, 4.68, 5.55, 6.64, 6.5, 4.85, 4.06, 4.77, 4.77, 4.37, 4.48, 3.61, 3.02, 3.53, 5.09, 6.53, 7.19, 6.9, 7.01, 6.28, 5.51, 4.58, 3.87, 3.13, 2.44, 1.42, 1.42, 2.11, -2.37, -2.37, -2.23, -2.23, -2.4, -2.4, -2.23, -2.4, -2.26, -2.29, -2.14, -2.29, -2.29, -2.26, -2.26, -2.92, -2.92, -3.4, -2.92, -2.92, -3.4, -3.37, -2.89, -2.89, -2.37, -1.69, -1.12, -0.56, 0.0, 0.58, 1.15, 1.15, 1.71, 1.71, 1.71, 1.79, 1.79, 1.69, 2.23, 2.23, 2.23, 2.23, 2.77, 3.19, 2.9, 2.75, 2.35, 2.25, 2.93, 2.8, 3.3, 3.94, 3.94, 4.4, 4.63, 4.63, 4.63, 4.42, 4.66, 4.66, 4.66, 4.44, 5.69, 4.0, 4.2, 4.6, 4.4, 4.83, 4.92, 4.92, 5.52, 5.64, 5.36, 6.47, 8.34, 7.42, 3.28, 1.58, 2.17, 3.59, 3.76, 3.69, 4.5, 5.62, 6.53, 7.19, 6.48, 6.2, 5.45, 4.66, 3.87, 3.13, 2.25, 1.56, 0.78, 0.71, 0.0, 1.42, -2.37, -2.37, -2.23, -2.4, -2.92, -2.92, -2.92, -2.26, -2.29, -2.14, -2.29, -2.29, -2.29, -2.75, -2.75, -2.75, -2.92, -2.92, -2.92, -2.92, -2.92, -2.89, -2.89, -2.37, -1.69, -1.12, -0.56, 0.0, 0.55, 1.15, 1.15, 1.71, 1.71, 1.71, 1.71, 1.71, 1.71, 1.79, 1.79, 2.23, 2.35, 2.35, 2.25, 2.28, 3.19, 2.9, 2.9, 2.93, 2.8, 3.49, 3.49, 4.16, 3.94, 4.16, 4.16, 4.16, 4.42, 4.66, 4.66, 4.2, 4.44, 4.44, 4.03, 4.6, 4.88, 4.4, 4.6, 4.83, 5.52, 5.76, 5.41, 5.63, 4.65, 6.8, 8.95, 10.8, 7.31, 3.12, 1.57, 2.15, 3.53, 4.31, 5.0, 6.53, 6.67, 6.48, 5.81, 4.52, 3.83, 3.04, 2.3, 1.51, 0.76, 0.0, 0.0, 0.0, 0.0, 0.0, -2.37, -2.37, -2.73, -2.92, -2.92, -2.92, -2.92, -2.26, -2.29, -2.29, -2.29, -2.29, -2.96, -2.96, -2.96, -2.96, -2.96, -2.75, -2.92, -2.92, -2.92, -2.73, -2.37, -2.21, -1.2, -0.56, 0.0, 0.59, 1.1, 1.15, 1.15, 1.71, 1.71, 1.71, 1.71, 1.71, 1.71, 1.71, 1.71, 1.71, 2.25, 2.25, 2.25, 1.73, 1.73, 2.44, 2.9, 3.45, 3.45, 3.49, 3.49, 3.49, 3.49, 3.97, 3.97, 3.97, 4.2, 4.2, 4.2, 4.66, 4.66, 4.69, 5.69, 4.88, 4.88, 5.72, 4.96, 5.45, 5.38, 5.76, 5.63, 5.63, 4.72, 4.65, 6.56, 10.25, 12.0, 10.12, 5.56, 4.17, 4.4, 4.48, 5.1, 5.29, 4.94, 5.02, 4.52, 3.83, 3.1, 2.3, 1.54, 0.76, 0.0, 0.0, -0.82, -0.8, -0.78, -0.78, -2.89, -2.89, -2.73, -2.92, -2.92, -2.92, -2.92, -2.26, -2.29, -2.29, -2.29, -2.96, -2.96, -2.96, -2.96, -2.96, -2.96, -2.75, -2.92, -2.92, -2.92, -2.73, -2.37, -1.69, -0.56, 0.0, 0.56, 0.59, 1.1, 1.1, 1.15, 1.71, 1.71, 1.71, 1.71, 1.71, 1.71, 1.71, 1.71, 1.71, 1.71, 1.71, 1.71, 1.73, 1.73, 1.71, 2.77, 2.93, 2.93, 2.8, 2.97, 3.32, 3.32, 3.32, 3.52, 3.52, 4.0, 4.2, 4.2, 4.66, 5.08, 5.08, 4.69, 5.1, 4.88, 5.72, 5.72, 5.72, 5.38, 5.76, 5.63, 5.0, 4.32, 3.91, 4.74, 6.69, 10.72, 13.88, 12.65, 8.96, 6.6, 5.18, 4.31, 3.6, 3.6, 3.14, 3.07, 3.01, 2.23, 1.54, 0.78, 0.0, 0.0, -0.8, -1.63, -1.58, -1.58, -1.58, -2.73, -2.73, -2.73, -2.92, -2.92, -2.92, -2.26, -2.29, -2.29, -2.29, -2.77, -2.96, -2.96, -2.96, -2.96, -2.96, -2.96, -2.75, -2.92, -2.92, -2.73, -2.23, -1.69, -0.56, 0.0, 0.0, 0.56, 0.59, 1.16, 1.1, 1.71, 1.71, 1.71, 1.71, 1.71, 1.71, 1.71, 1.71, 1.71, 1.71, 1.71, 1.71, 1.73, 1.73, 1.73, 1.73, 2.28, 2.28, 2.8, 2.97, 2.83, 2.83, 3.01, 3.52, 3.52, 3.52, 4.0, 4.0, 4.0, 4.69, 5.09, 5.34, 5.09, 5.69, 5.72, 5.72, 5.98, 5.98, 5.64, 5.76, 4.8, 4.13, 3.85, 4.06, 4.55, 5.62, 8.92, 12.37, 14.38, 13.25, 10.46, 7.3, 4.38, 3.47, 2.88, 2.14, 2.31, 2.33, 1.58, 1.54, 0.78, 0.0, -0.76, -1.54, -1.58, -2.41, -2.41, -2.41, -2.73, -2.73, -2.92, -2.92, -2.92, -2.75, -2.75, -2.44, -2.77, -2.77, -2.96, -2.96, -2.96, -2.96, -2.96, -2.96, -2.96, -2.75, -2.92, -2.73, -2.23, -1.71, -1.14, 0.0, 0.0, 0.56, 0.56, 1.16, 1.16, 1.73, 1.63, 1.71, 1.15, 1.15, 1.15, 1.71, 1.71, 1.71, 1.71, 1.71, 1.63, 1.73, 1.73, 2.28, 2.28, 2.17, 2.3, 2.3, 2.83, 2.83, 2.83, 2.86, 2.86, 2.86, 2.86, 3.35, 3.35, 4.0, 4.24, 4.69, 4.69, 5.09, 5.34, 5.09, 6.98, 5.72, 5.98, 5.76, 5.9, 5.52, 4.54, 4.92, 4.8, 4.75, 5.48, 6.4, 7.08, 8.68, 11.58, 13.25, 13.25, 10.17, 6.34, 3.73, 2.88, 2.28, 1.5, 0.76, 0.74, 0.0, 0.0, -1.53, -1.58, -1.62, -2.41, -2.33, -2.33, -2.33, -2.92, -2.92, -2.92, -2.92, -2.75, -2.75, -2.75, -2.96, -2.96, -2.96, -2.96, -2.96, -2.96, -2.96, -2.96, -2.96, -2.75, -2.92, -2.92, -2.73, -1.71, -1.07, -0.57, 0.0, 0.0, 0.59, 0.56, 1.16, 1.16, 1.73, 1.73, 1.71, 1.15, 1.15, 1.1, 1.1, 1.1, 1.63, 1.73, 1.73, 1.73, 1.73, 2.28, 2.28, 2.17, 2.3, 2.3, 2.3, 2.3, 2.83, 2.83, 2.86, 2.86, 2.86, 2.86, 3.35, 3.56, 3.56, 4.03, 4.45, 4.45, 4.69, 5.09, 5.72, 5.72, 6.24, 5.72, 4.96, 5.64, 4.92, 4.92, 5.41, 5.63, 5.4, 5.67, 6.2, 6.35, 7.22, 9.0, 10.46, 12.56, 11.87, 8.02, 5.11, 3.68, 2.82, 1.5, 0.74, 0.0, 0.0, -1.15, -1.61, -1.61, -2.39, -2.39, -2.45, -2.45, -2.45, -2.92, -2.92, -2.92, -2.75, -2.96, -2.96, -2.75, -2.96, -2.96, -2.96, -2.96, -2.96, -2.96, -2.96, -2.96, -2.96, -2.75, -2.92, -2.92, -2.23, -1.16, -0.54, 0.0, 0.0, 0.0, 0.56, 1.11, 1.16, 1.73, 1.73, 1.73, 1.1, 1.1, 1.1, 1.16, 1.16, 1.16, 1.16, 1.73, 1.73, 1.73, 1.73, 2.28, 2.3, 2.3, 2.3, 2.3, 2.3, 2.3, 2.3, 2.33, 2.33, 2.21, 2.71, 2.86, 3.56, 3.56, 3.37, 3.81, 4.05, 4.71, 4.71, 4.71, 5.1, 6.01, 5.98, 6.01, 6.01, 5.72, 5.64, 5.52, 5.76, 5.51, 5.6, 5.67, 5.55, 5.51, 6.97, 8.2, 9.66, 9.72, 10.86, 9.87, 6.42, 3.6, 2.82, 1.5, 0.71, 0.0, -1.55, -1.55, -1.65, -1.6, -1.54, -1.54, -0.74, -0.74, -0.74, -2.92, -2.92, -2.75, -2.96, -2.96, -2.96, -2.96, -2.75, -2.75, -2.75, -2.96, -2.96, -2.96, -2.96, -2.96, -2.75, -2.92, -2.92, -2.4, -2.4, -1.71, -0.54, 0.0, 0.0, 0.0, 0.56, 1.11, 1.16, 1.73, 1.73, 1.16, 1.16, 1.16, 1.16, 1.16, 1.16, 1.16, 1.16, 1.73, 1.65, 1.65, 2.17, 2.3, 2.3, 2.3, 2.3, 2.3, 2.3, 2.3, 2.19, 2.33, 2.33, 2.21, 2.37, 2.89, 2.89, 2.89, 3.37, 3.6, 4.05, 4.05, 4.05, 4.46, 5.1, 5.1, 6.69, 6.3, 6.3, 5.98, 5.64, 5.76, 5.76, 5.51, 5.6, 5.48, 6.2, 6.09, 7.0, 8.74, 8.62, 8.92, 9.87, 11.66, 8.6, 4.46, 2.25, 1.42, 1.39, 0.0, 0.0, 0.0, 0.0, 0.0, 0.0, 0.0, 0.79, 0.79, 0.79, -2.75, -2.75, -2.96, -2.77, -2.77, -2.96, -2.96, -2.96, -3.2, -3.42, -3.42, -3.42, -3.42, -3.2, -3.4, -2.75, -2.75, -2.75, -2.26, -1.73, -1.16, -0.57, 0.0, 0.0, 0.59, 1.11, 1.11, 1.11, 1.73, 1.16, 1.16, 1.16, 1.16, 1.16, 1.16, 1.16, 1.11, 1.65, 1.65, 1.75, 1.75, 1.75, 1.75, 1.75, 2.3, 2.3, 2.19, 2.19, 2.19, 2.19, 2.33, 2.21, 2.37, 2.37, 2.37, 2.89, 2.89, 3.4, 3.4, 4.05, 4.05, 4.05, 4.05, 4.47, 5.08, 5.89, 6.18, 6.24, 6.04, 5.64, 5.9, 5.29, 5.63, 5.72, 6.21, 6.31, 6.2, 7.23, 8.16, 8.74, 8.83, 9.85, 11.58, 10.93, 5.73, 2.21, 2.15, 2.1, 2.19, 1.48, 0.71, 0.0, 0.0, 0.85, 1.62, 2.49, 2.49, 2.49, -2.96, -2.77, -2.77, -2.77, -2.77, -2.96, -3.42, -3.42, -3.42, -3.42, -3.42, -3.42, -3.42, -3.4, -3.2, -2.75, -2.75, -2.26, -2.26, -1.61, -1.16, 0.0, 0.0, 0.0, 0.59, 1.18, 1.18, 1.11, 1.11, 1.16, 1.16, 1.16, 1.16, 1.16, 1.16, 1.11, 1.11, 1.75, 1.75, 1.75, 1.75, 1.75, 1.75, 1.75, 1.75, 1.67, 2.19, 2.19, 2.19, 2.33, 2.33, 2.21, 2.37, 2.23, 2.23, 2.23, 2.92, 2.92, 3.4, 3.4, 3.4, 3.83, 4.08, 4.47, 4.75, 6.01, 5.89, 6.64, 6.53, 6.53, 5.9, 5.9, 4.92, 5.63, 6.33, 6.43, 7.13, 7.13, 7.82, 7.82, 8.0, 8.07, 8.87, 9.8, 7.17, 3.8, 3.78, 2.95, 2.88, 2.19, 1.42, 1.39, 1.43, 2.39, 3.25, 4.13, 4.13, 4.13, -2.77, -3.0, -3.0, -3.0, -2.77, -3.42, -3.42, -3.42, -3.42, -3.42, -3.42, -3.42, -3.64, -3.42, -3.42, -2.96, -2.75, -2.26, -1.73, -1.71, -1.16, -0.57, 0.0, 0.56, 0.56, 1.18, 1.18, 1.18, 1.11, 1.11, 1.16, 1.16, 1.16, 1.11, 1.11, 1.11, 1.18, 1.75, 1.75, 1.75, 1.75, 1.75, 1.75, 1.75, 1.67, 1.67, 1.78, 2.33, 2.33, 2.33, 2.21, 2.37, 2.37, 2.23, 2.23, 2.4, 2.26, 2.75, 2.92, 2.92, 3.4, 3.4, 4.08, 4.1, 4.75, 4.74, 5.69, 6.01, 6.64, 6.53, 6.42, 6.7, 5.9, 5.06, 5.63, 6.33, 7.25, 7.13, 6.4, 6.47, 7.08, 8.0, 8.14, 7.35, 4.32, 3.8, 3.11, 2.25, 1.42, 2.19, 2.19, 3.02, 3.51, 4.8, 5.0, 4.87, 4.87, 4.87, -3.0, -3.0, -3.45, -3.45, -3.45, -3.42, -3.42, -3.84, -3.84, -3.84, -3.84, -3.84, -3.42, -3.42, -3.42, -2.96, -2.96, -2.26, -1.73, -1.71, -1.16, -0.57, 0.0, 0.56, 0.56, 1.12, 1.12, 1.18, 1.18, 1.11, 1.11, 1.11, 1.11, 1.11, 1.11, 1.18, 1.75, 1.67, 1.67, 1.67, 1.67, 1.75, 1.75, 1.67, 1.67, 1.78, 1.69, 1.69, 1.69, 1.69, 1.69, 2.23, 2.23, 2.23, 1.84, 2.26, 2.26, 2.26, 2.26, 2.75, 2.96, 3.42, 3.42, 4.1, 4.12, 4.12, 5.06, 5.77, 6.39, 6.64, 6.53, 6.42, 6.42, 6.83, 5.9, 6.57, 7.12, 6.31, 5.55, 5.73, 6.47, 7.27, 8.02, 4.88, 3.53, 2.82, 2.17, 1.45, 1.5, 2.82, 4.4, 5.0, 5.63, 5.86, 5.72, 5.6, 5.6, 5.6, -3.45, -3.45, -3.45, -3.45, -3.68, -3.84, -3.84, -3.84, -3.84, -3.84, -3.84, -3.84, -3.42, -3.42, -3.42, -2.96, -2.75, -2.26, -1.61, -1.16, -0.54, -0.57, 0.0, 0.56, 1.12, 1.12, 1.12, 1.18, 1.18, 1.11, 1.11, 1.11, 1.11, 1.11, 1.18, 1.75, 1.67, 1.67, 1.67, 1.67, 1.67, 1.67, 1.67, 1.67, 1.78, 1.69, 1.69, 1.69, 1.69, 1.69, 1.71, 1.71, 1.71, 1.71, 1.73, 1.73, 1.73, 2.26, 2.26, 2.96, 2.96, 2.96, 3.21, 3.45, 4.12, 4.12, 3.79, 3.73, 5.24, 5.89, 5.49, 5.76, 6.42, 6.42, 6.42, 6.31, 6.33, 6.1, 6.31, 5.67, 6.4, 7.2, 8.31, 7.42, 2.95, 1.52, 1.49, 2.17, 2.97, 4.4, 5.54, 6.53, 6.56, 5.6, 5.6, 4.81, 4.81, 4.81, -3.45, -3.45, -3.45, -3.85, -4.1, -4.1, -3.84, -3.84, -3.84, -3.84, -3.84, -3.84, -3.42, -3.42, -3.42, -2.96, -2.75, -2.26, -1.71, -1.16, -0.57, -0.57, 0.0, 0.56, 1.12, 1.12, 1.12, 1.18, 1.18, 1.18, 1.18, 1.18, 1.11, 1.11, 1.18, 1.75, 1.67, 1.67, 1.67, 1.67, 1.67, 1.67, 1.67, 1.78, 1.69, 1.69, 1.69, 1.69, 1.81, 1.71, 1.71, 1.61, 1.73, 1.73, 1.73, 1.73, 1.73, 1.63, 2.29, 2.29, 2.44, 2.77, 2.77, 3.0, 3.47, 3.84, 3.83, 3.79, 5.37, 4.83, 5.1, 5.49, 5.76, 5.64, 5.64, 5.06, 5.63, 6.21, 6.31, 7.13, 7.13, 7.32, 10.17, 10.21, 4.87, 0.96, 2.64, 4.2, 4.4, 5.18, 5.77, 5.89, 5.48, 4.81, 4.81, 4.55, 4.55, 4.55, -3.85, -3.85, -3.85, -3.85, -4.1, -4.1, -4.1, -4.1, -4.1, -4.1, -4.1, -4.1, -3.84, -3.42, -3.42, -2.96, -2.26, -1.73, -1.16, -1.07, -0.57, 0.0, 0.0, 1.14, 1.2, 1.12, 1.12, 1.18, 1.18, 1.12, 1.12, 1.18, 1.18, 1.18, 1.18, 1.75, 1.67, 1.67, 1.67, 1.67, 1.67, 1.67, 1.78, 1.69, 1.69, 1.69, 1.81, 1.71, 1.71, 1.71, 1.61, 1.73, 1.18, 1.18, 1.73, 1.73, 1.63, 1.76, 2.29, 2.29, 2.29, 2.29, 2.29, 2.8, 3.47, 3.84, 4.12, 4.11, 4.43, 5.24, 5.1, 5.36, 5.49, 5.76, 5.64, 5.06, 4.4, 5.51, 6.43, 6.31, 7.13, 7.91, 9.13, 11.02, 7.49, 2.57, 3.64, 5.28, 5.0, 4.4, 4.4, 4.39, 4.31, 4.1, 3.96, 4.1, 4.1, 4.1, -4.12, -4.12, -3.85, -4.1, -4.1, -4.47, -4.47, -4.47, -4.1, -4.1, -4.1, -4.1, -3.84, -3.42, -2.96, -2.75, -2.26, -1.61, -1.16, -0.57, -0.57, 0.0, 0.57, 1.14, 1.2, 1.12, 1.12, 1.12, 1.12, 1.12, 1.12, 1.12, 1.18, 1.18, 1.18, 1.67, 1.67, 1.67, 1.67, 1.67, 1.78, 1.78, 1.69, 1.69, 1.69, 1.71, 1.71, 1.71, 1.71, 1.61, 1.18, 1.18, 1.18, 1.18, 1.18, 1.63, 1.63, 1.76, 1.76, 1.76, 1.76, 1.76, 2.14, 2.32, 3.04, 3.47, 4.12, 4.43, 4.43, 4.95, 5.24, 5.1, 5.89, 5.76, 5.64, 5.06, 4.2, 4.6, 5.51, 6.43, 6.4, 6.54, 7.0, 8.31, 8.27, 5.55, 4.71, 5.18, 5.1, 4.32, 3.76, 3.68, 4.39, 4.1, 3.96, 3.96, 3.96, 3.96, -4.12, -4.12, -4.12, -4.47, -4.47, -4.47, -4.47, -4.47, -4.47, -4.47, -4.1, -4.1, -3.42, -3.42, -2.96, -2.26, -1.73, -1.71, -1.16, -0.57, 0.0, 0.57, 0.57, 1.14, 1.2, 1.12, 1.12, 1.12, 1.12, 1.12, 1.12, 1.12, 1.18, 1.18, 1.18, 1.75, 1.67, 1.67, 1.67, 1.78, 1.78, 1.69, 1.69, 1.69, 1.71, 1.71, 1.71, 1.16, 1.16, 1.09, 1.18, 1.1, 1.1, 1.1, 1.1, 1.1, 1.63, 1.76, 1.76, 1.63, 1.76, 1.76, 1.65, 2.32, 2.8, 3.47, 3.84, 4.43, 4.12, 5.06, 4.95, 5.24, 5.1, 4.96, 4.83, 5.06, 5.06, 4.07, 4.8, 5.48, 5.55, 4.95, 4.7, 5.61, 7.39, 6.59, 5.76, 5.09, 5.02, 4.24, 3.53, 3.68, 4.24, 4.1, 3.96, 3.96, 3.96, 3.96, -4.12, -4.12, -4.45, -4.75, -4.75, -4.75, -4.75, -4.75, -4.47, -4.1, -4.1, -3.68, -3.42, -2.96, -2.26, -2.26, -1.61, -1.16, -0.54, 0.0, 0.0, 0.57, 1.14, 1.14, 1.14, 1.12, 1.12, 1.12, 1.12, 1.12, 1.12, 1.18, 1.18, 1.18, 1.18, 1.75, 1.67, 1.67, 1.67, 1.78, 1.78, 1.69, 1.69, 1.69, 1.16, 1.16, 1.16, 1.16, 1.09, 1.09, 0.59, 0.56, 0.56, 0.56, 1.1, 1.1, 1.1, 1.1, 1.1, 1.1, 1.2, 1.12, 1.65, 2.32, 2.8, 3.47, 3.84, 4.12, 4.12, 4.12, 4.12, 4.42, 4.26, 4.26, 4.12, 4.83, 4.07, 4.07, 3.16, 4.65, 4.71, 4.07, 4.04, 4.8, 6.6, 7.22, 5.72, 5.09, 5.1, 5.02, 4.32, 4.32, 4.24, 4.81, 4.81, 4.81, 4.81, 4.81, -4.45, -4.45, -4.45, -4.75, -4.75, -4.75, -4.75, -4.75, -4.47, -4.1, -4.1, -3.42, -2.96, -2.75, -2.26, -1.73, -1.16, -0.58, 0.0, 0.0, 0.57, 1.14, 1.14, 1.14, 1.14, 1.2, 1.12, 1.12, 1.12, 1.12, 1.12, 1.18, 1.18, 1.18, 1.18, 1.18, 1.75, 1.67, 1.67, 1.67, 1.78, 1.69, 1.14, 1.14, 1.16, 1.16, 1.16, 0.55, 0.55, 0.55, 0.59, 0.56, 0.56, 0.56, 1.1, 1.1, 1.1, 1.1, 1.1, 0.56, 1.2, 1.12, 1.65, 2.32, 2.8, 3.47, 3.84, 3.84, 4.12, 4.12, 3.76, 4.42, 4.42, 4.96, 3.27, 3.32, 3.36, 3.25, 3.39, 3.07, 3.87, 3.95, 4.01, 5.51, 7.46, 8.14, 6.31, 5.0, 4.92, 5.02, 5.1, 4.92, 5.29, 5.2, 5.11, 5.11, 5.11, 5.11, -4.45, -4.45, -4.75, -4.75, -4.75, -4.75, -4.75, -4.75, -4.1, -4.1, -3.68, -3.42, -2.96, -2.26, -1.73, -1.09, -1.16, 0.0, 0.0, 0.57, 0.57, 1.14, 1.14, 1.14, 1.14, 1.12, 1.12, 1.12, 1.12, 1.12, 1.18, 1.18, 1.18, 1.11, 1.18, 1.18, 1.75, 1.67, 1.67, 1.67, 1.2, 1.14, 1.14, 1.14, 1.07, 0.58, 0.58, 0.55, 0.55, 0.55, 0.0, 0.56, 0.56, 0.56, 0.56, 0.56, 0.56, 0.56, 0.56, 0.61, 1.12, 1.12, 1.65, 2.32, 2.8, 3.22, 3.47, 3.47, 3.47, 3.76, 3.76, 3.47, 3.47, 3.52, 3.27, 2.57, 3.21, 3.25, 3.39, 3.07, 3.23, 4.04, 4.85, 5.69, 7.42, 8.87, 7.32, 5.72, 5.72, 6.43, 6.21, 5.6, 5.89, 5.52, 5.11, 4.87, 4.87, 4.87, -4.45, -4.45, -4.75, -4.75, -4.75, -4.75, -4.75, -4.75, -4.1, -4.1, -3.68, -3.42, -2.96, -2.26, -1.73, -1.09, -1.16, 0.0, 0.0, 0.57, 0.57, 1.14, 1.14, 1.14, 1.14, 1.12, 1.12, 1.12, 1.12, 1.12, 1.18, 1.18, 1.18, 1.11, 1.18, 1.18, 1.75, 1.67, 1.67, 1.67, 1.2, 1.14, 1.14, 1.14, 1.07, 0.58, 0.58, 0.55, 0.55, 0.55, 0.0, 0.56, 0.56, 0.56, 0.56, 0.56, 0.56, 0.56, 0.56, 0.61, 1.12, 1.12, 1.65, 2.32, 2.8, 3.22, 3.47, 3.47, 3.47, 3.76, 3.76, 3.47, 3.47, 3.52, 3.27, 2.57, 3.36, 3.25, 3.39, 3.07, 3.23, 4.04, 4.85, 5.56, 7.33, 8.68, 8.74, 7.13, 6.43, 6.43, 6.65, 6.43, 6.65, 5.67, 5.55, 4.87, 4.87, 4.87]}]